GFSCGP_500_temp_000.txt.gz
Temp
-11 -11 -10 -11 -12 -12 -12 -11 -11 -11 -13 -12 -12 -12 -12 -12 -12 -13 -13 -13 -13 -12 -12 -12 -12 -12 -12 -13 -13 -13 -13 -13 -12 -12 -13 -13 -14 -14 -14 -15 -14 -15 -15 -14
-11 -10 -11 -12 -11 -11 -12 -11 -11 -11 -12 -12 -12 -12 -12 -13 -13 -13 -14 -14 -13 -12 -12 -12 -13 -13 -13 -13 -13 -12 -13 -13 -13 -12 -13 -13 -13 -14 -14 -14 -14 -14 -14 -14
-11 -11 -12 -12 -11 -11 -11 -11 -11 -11 -12 -12 -12 -11 -12 -13 -13 -12 -13 -13 -13 -13 -12 -12 -13 -13 -13 -13 -13 -13 -12 -12 -12 -12 -13 -14 -14 -13 -14 -14 -13 -14 -13 -14
-11 -11 -11 -11 -11 -11 -11 -12 -12 -12 -12 -12 -12 -11 -12 -12 -13 -13 -12 -13 -13 -13 -12 -12 -13 -13 -13 -13 -13 -13 -12 -12 -12 -12 -13 -13 -13 -13 -13 -14 -13 -13 -14 -14
-10 -11 -11 -11 -12 -12 -12 -13 -13 -12 -12 -11 -11 -11 -11 -12 -13 -12 -12 -13 -13 -13 -13 -12 -13 -13 -13 -13 -13 -13 -12 -12 -12 -12 -13 -13 -13 -13 -13 -13 -13 -13 -13 -14
-10 -11 -11 -11 -12 -12 -12 -12 -12 -12 -12 -11 -12 -12 -11 -13 -12 -12 -13 -13 -13 -13 -12 -12 -13 -13 -13 -13 -13 -13 -12 -12 -12 -13 -13 -13 -13 -13 -13 -13 -13 -13 -13 -13
-9 -10 -11 -11 -12 -12 -12 -12 -12 -12 -12 -11 -13 -12 -12 -12 -11 -12 -13 -13 -13 -12 -12 -12 -13 -13 -13 -13 -13 -13 -13 -12 -12 -13 -13 -13 -13 -13 -13 -13 -13 -13 -13 -13
-9 -9 -11 -11 -11 -12 -12 -13 -13 -12 -13 -12 -13 -12 -12 -12 -12 -12 -13 -12 -13 -12 -12 -12 -13 -13 -13 -13 -13 -13 -13 -12 -12 -13 -13 -12 -13 -13 -13 -13 -13 -12 -13 -13
-9 -9 -11 -11 -11 -12 -13 -13 -13 -13 -14 -12 -12 -12 -13 -13 -13 -12 -13 -13 -12 -12 -12 -12 -13 -13 -13 -13 -13 -13 -13 -13 -12 -13 -13 -13 -13 -13 -13 -13 -13 -13 -13 -13
-10 -10 -12 -11 -11 -12 -13 -14 -14 -14 -14 -13 -12 -12 -13 -13 -13 -13 -13 -12 -12 -12 -12 -12 -13 -13 -13 -13 -13 -13 -13 -13 -13 -12 -12 -12 -13 -13 -13 -13 -13 -13 -13 -13
-11 -11 -11 -12 -10 -11 -12 -13 -14 -13 -14 -13 -12 -12 -14 -14 -13 -13 -13 -12 -12 -12 -12 -12 -13 -13 -13 -13 -13 -13 -13 -13 -13 -12 -12 -12 -12 -13 -13 -13 -13 -13 -13 -13
-11 -11 -11 -12 -11 -12 -12 -13 -14 -14 -14 -14 -13 -12 -14 -14 -14 -14 -13 -13 -12 -12 -12 -12 -13 -13 -13 -13 -13 -13 -13 -13 -13 -12 -12 -13 -13 -13 -13 -13 -13 -13 -13 -13
-12 -11 -11 -11 -11 -11 -10 -12 -13 -13 -14 -14 -13 -12 -14 -14 -14 -14 -14 -13 -12 -12 -12 -12 -13 -13 -13 -13 -13 -13 -13 -13 -13 -13 -13 -13 -13 -13 -13 -13 -13 -13 -12 -13
-13 -12 -11 -10 -11 -11 -12 -12 -13 -13 -13 -13 -12 -12 -14 -14 -14 -14 -13 -13 -12 -12 -12 -12 -13 -13 -13 -13 -13 -13 -13 -13 -13 -13 -13 -13 -13 -13 -13 -13 -13 -13 -13 -13
-13 -12 -11 -11 -11 -12 -12 -13 -13 -13 -12 -13 -12 -12 -14 -14 -13 -13 -13 -13 -12 -12 -12 -12 -13 -13 -13 -13 -13 -13 -13 -13 -13 -13 -13 -13 -13 -13 -13 -13 -13 -12 -12 -12
-14 -12 -12 -12 -12 -12 -11 -10 -12 -13 -13 -13 -13 -12 -12 -14 -13 -14 -13 -13 -12 -12 -12 -12 -12 -13 -13 -13 -13 -13 -13 -13 -13 -13 -13 -13 -13 -13 -13 -13 -13 -13 -13 -13
-14 -13 -13 -12 -12 -12 -10 -11 -11 -12 -12 -12 -12 -12 -12 -13 -13 -13 -13 -13 -13 -13 -13 -12 -13 -13 -13 -13 -13 -13 -13 -13 -13 -13 -13 -13 -13 -13 -13 -13 -13 -13 -13 -13
-15 -14 -13 -13 -13 -12 -10 -11 -12 -12 -12 -12 -12 -12 -12 -13 -12 -12 -13 -12 -13 -12 -13 -12 -12 -13 -13 -13 -13 -13 -13 -13 -13 -13 -13 -13 -13 -13 -13 -13 -13 -13 -13 -13
-15 -15 -14 -13 -12 -11 -11 -11 -12 -12 -12 -13 -13 -13 -13 -13 -12 -13 -13 -13 -13 -12 -12 -13 -12 -12 -13 -13 -13 -13 -13 -13 -13 -13 -13 -13 -13 -13 -13 -13 -13 -13 -12 -12
-16 -16 -15 -14 -12 -11 -11 -11 -12 -12 -12 -12 -13 -13 -12 -13 -12 -12 -13 -13 -13 -13 -12 -12 -12 -12 -12 -13 -13 -13 -13 -13 -13 -13 -13 -13 -12 -12 -12 -12 -12 -12 -12 -13
-16 -16 -16 -14 -12 -11 -11 -11 -12 -12 -11 -13 -13 -13 -12 -12 -12 -13 -13 -13 -13 -13 -13 -13 -12 -12 -12 -12 -12 -13 -13 -13 -13 -13 -13 -13 -13 -13 -12 -12 -12 -12 -12 -12
-15 -16 -16 -14 -12 -11 -11 -12 -12 -13 -13 -13 -13 -13 -13 -13 -13 -13 -13 -13 -13 -13 -13 -13 -12 -13 -12 -13 -12 -12 -13 -13 -13 -13 -13 -13 -13 -13 -13 -12 -12 -12 -12 -13
-16 -16 -15 -14 -12 -11 -12 -13 -13 -13 -14 -13 -13 -14 -14 -14 -13 -13 -13 -13 -13 -13 -13 -13 -13 -12 -13 -12 -12 -12 -13 -13 -12 -13 -13 -13 -13 -13 -13 -13 -13 -13 -13 -13
-16 -16 -16 -15 -14 -13 -13 -13 -13 -14 -13 -13 -13 -13 -14 -13 -13 -13 -13 -13 -13 -13 -14 -14 -13 -13 -13 -13 -13 -13 -13 -13 -12 -13 -13 -13 -13 -13 -13 -13 -13 -13 -13 -13
-16 -16 -15 -15 -14 -13 -13 -14 -14 -14 -13 -14 -14 -13 -14 -14 -13 -13 -12 -12 -13 -13 -14 -14 -14 -13 -13 -13 -13 -13 -13 -13 -13 -13 -13 -13 -13 -13 -13 -13 -13 -13 -13 -13
-17 -16 -16 -14 -14 -14 -14 -15 -15 -15 -14 -15 -14 -14 -14 -14 -14 -13 -13 -13 -13 -13 -14 -14 -14 -14 -13 -13 -13 -13 -13 -13 -13 -13 -13 -13 -13 -13 -13 -13 -13 -13 -13 -13

GFSCGP_500_temp_003.txt.gz
Temp
-10 -10 -10 -11 -12 -11 -12 -12 -12 -12 -12 -12 -12 -11 -11 -12 -12 -13 -12 -13 -13 -14 -13 -13 -12 -12 -12 -12 -13 -13 -12 -12 -12 -13 -13 -13 -13 -13 -14 -13 -14 -14 -14 -14
-10 -10 -11 -11 -11 -11 -12 -12 -12 -11 -12 -11 -11 -11 -11 -12 -12 -13 -13 -13 -13 -13 -13 -13 -12 -12 -12 -12 -13 -13 -12 -12 -12 -13 -13 -13 -12 -13 -14 -13 -13 -14 -13 -13
-11 -11 -11 -11 -11 -11 -11 -11 -11 -11 -12 -11 -11 -11 -11 -11 -12 -13 -12 -12 -13 -13 -13 -13 -12 -12 -12 -13 -13 -13 -12 -12 -12 -13 -12 -12 -12 -13 -13 -13 -13 -13 -13 -13
-11 -11 -11 -11 -11 -11 -11 -11 -11 -11 -11 -11 -12 -11 -11 -12 -12 -13 -12 -12 -12 -13 -13 -13 -12 -12 -12 -13 -13 -13 -12 -13 -13 -13 -12 -12 -12 -12 -13 -13 -13 -13 -13 -14
-10 -11 -11 -11 -12 -12 -11 -11 -11 -12 -11 -11 -12 -11 -11 -12 -12 -12 -12 -12 -12 -13 -13 -13 -12 -12 -12 -13 -13 -13 -12 -13 -13 -12 -13 -12 -12 -12 -13 -13 -13 -13 -13 -13
-10 -10 -10 -11 -11 -11 -11 -11 -11 -12 -12 -11 -12 -13 -12 -12 -12 -12 -12 -12 -13 -13 -13 -13 -12 -12 -12 -13 -13 -13 -12 -12 -13 -12 -12 -13 -12 -12 -13 -13 -13 -13 -13 -13
-9 -9 -10 -11 -11 -11 -11 -12 -12 -12 -12 -12 -12 -12 -12 -12 -12 -12 -12 -12 -13 -13 -12 -13 -12 -12 -12 -13 -13 -13 -12 -13 -13 -13 -12 -12 -13 -12 -13 -13 -13 -13 -13 -13
-10 -10 -10 -11 -11 -11 -12 -12 -12 -12 -12 -12 -12 -12 -12 -13 -12 -12 -12 -12 -12 -12 -12 -12 -12 -12 -12 -13 -13 -13 -13 -13 -13 -13 -13 -12 -12 -13 -13 -13 -13 -13 -13 -13
-10 -10 -11 -11 -11 -11 -11 -11 -12 -12 -12 -12 -12 -12 -13 -13 -13 -13 -13 -13 -13 -12 -12 -12 -12 -12 -12 -13 -13 -13 -13 -13 -13 -13 -13 -12 -13 -13 -13 -13 -13 -13 -13 -13
-10 -10 -11 -12 -11 -11 -10 -12 -12 -12 -12 -12 -12 -12 -14 -13 -14 -13 -14 -13 -13 -12 -12 -12 -12 -12 -12 -13 -13 -13 -12 -13 -13 -13 -12 -12 -12 -13 -13 -13 -13 -13 -13 -13
-11 -10 -10 -11 -10 -11 -11 -10 -11 -12 -12 -12 -12 -13 -14 -14 -14 -14 -14 -13 -13 -12 -12 -12 -12 -12 -13 -13 -13 -13 -13 -13 -13 -13 -12 -12 -12 -13 -13 -13 -12 -13 -13 -14
-11 -11 -11 -11 -11 -11 -11 -11 -12 -11 -12 -12 -13 -12 -14 -14 -14 -14 -14 -13 -13 -12 -12 -12 -12 -12 -13 -13 -13 -13 -13 -13 -13 -13 -13 -12 -12 -12 -13 -13 -12 -12 -13 -13
-12 -11 -11 -11 -11 -10 -10 -10 -10 -10 -12 -12 -12 -12 -14 -14 -14 -14 -14 -13 -13 -12 -12 -12 -12 -12 -12 -13 -13 -13 -13 -13 -13 -13 -13 -13 -13 -13 -13 -12 -12 -12 -13 -13
-13 -12 -11 -10 -10 -11 -10 -10 -10 -10 -11 -12 -12 -12 -13 -14 -13 -13 -13 -13 -13 -12 -12 -12 -12 -12 -12 -13 -13 -13 -13 -13 -13 -13 -13 -13 -13 -13 -13 -12 -12 -12 -13 -13
-13 -11 -11 -11 -11 -11 -11 -11 -11 -11 -12 -12 -12 -12 -13 -13 -13 -13 -13 -13 -13 -12 -12 -12 -12 -12 -12 -13 -13 -13 -13 -13 -13 -13 -13 -13 -13 -12 -12 -13 -12 -12 -12 -12
-13 -12 -11 -11 -11 -11 -11 -11 -11 -10 -11 -11 -12 -12 -13 -13 -13 -13 -13 -13 -12 -12 -12 -12 -12 -13 -12 -13 -13 -13 -13 -13 -13 -13 -13 -13 -13 -13 -13 -13 -13 -12 -12 -13
-13 -12 -12 -11 -12 -12 -11 -11 -10 -10 -10 -11 -11 -12 -13 -12 -12 -13 -13 -13 -12 -12 -12 -12 -12 -12 -13 -13 -13 -13 -13 -13 -13 -13 -13 -13 -13 -13 -13 -13 -13 -13 -13 -13
-14 -13 -13 -12 -13 -11 -10 -11 -11 -11 -12 -12 -12 -12 -12 -13 -13 -12 -12 -12 -12 -12 -12 -12 -12 -12 -13 -13 -13 -13 -13 -13 -13 -13 -13 -13 -13 -13 -13 -13 -13 -13 -13 -13
-15 -14 -13 -13 -12 -11 -11 -11 -12 -12 -11 -12 -12 -12 -13 -13 -12 -12 -12 -12 -12 -13 -12 -12 -12 -12 -12 -13 -13 -13 -13 -13 -13 -13 -13 -13 -13 -13 -13 -13 -13 -13 -13 -12
-15 -15 -14 -13 -13 -11 -11 -11 -12 -12 -12 -12 -12 -13 -13 -13 -11 -12 -11 -12 -13 -13 -13 -12 -12 -12 -12 -12 -13 -13 -13 -13 -13 -13 -13 -13 -13 -13 -13 -13 -13 -12 -12 -12
-17 -16 -15 -14 -13 -11 -12 -12 -12 -12 -11 -13 -13 -13 -13 -13 -12 -12 -12 -12 -12 -12 -12 -12 -12 -12 -12 -12 -12 -13 -13 -13 -13 -12 -13 -12 -12 -12 -12 -12 -12 -12 -12 -12
-17 -17 -15 -14 -13 -12 -12 -12 -11 -12 -13 -13 -13 -12 -12 -13 -13 -12 -12 -12 -12 -12 -12 -12 -12 -12 -12 -12 -12 -13 -13 -13 -13 -13 -13 -13 -12 -12 -12 -12 -12 -12 -12 -12
-17 -17 -15 -14 -12 -12 -12 -13 -13 -12 -13 -13 -13 -13 -13 -13 -12 -12 -12 -12 -12 -12 -13 -13 -13 -12 -12 -12 -12 -12 -13 -13 -12 -13 -13 -13 -13 -13 -13 -12 -12 -12 -12 -12
-17 -17 -16 -15 -13 -13 -14 -14 -14 -14 -13 -14 -13 -13 -13 -13 -13 -13 -12 -13 -13 -12 -13 -13 -13 -13 -13 -12 -12 -12 -12 -12 -12 -12 -12 -12 -13 -13 -13 -13 -13 -13 -13 -13
-18 -17 -16 -15 -14 -14 -14 -15 -15 -15 -15 -14 -14 -14 -14 -14 -14 -13 -13 -13 -13 -13 -13 -13 -13 -13 -13 -13 -13 -13 -13 -12 -12 -13 -12 -12 -12 -12 -13 -13 -13 -13 -13 -13
-17 -18 -16 -15 -15 -15 -15 -15 -15 -15 -15 -15 -14 -14 -14 -14 -14 -13 -12 -13 -13 -13 -13 -13 -13 -13 -13 -13 -13 -13 -13 -13 -13 -13 -13 -13 -13 -13 -13 -13 -13 -13 -13 -13

GFSCGP_500_temp_006.txt.gz
Temp
-10 -10 -9 -10 -10 -11 -12 -12 -12 -12 -12 -11 -12 -11 -11 -11 -11 -11 -12 -12 -12 -12 -12 -12 -12 -12 -12 -12 -12 -12 -12 -12 -12 -11 -12 -13 -13 -13 -13 -13 -13 -14 -14 -14
-10 -9 -10 -11 -11 -11 -11 -11 -11 -11 -11 -11 -11 -11 -11 -11 -11 -11 -12 -12 -12 -12 -12 -12 -12 -12 -12 -12 -12 -12 -12 -12 -12 -12 -12 -12 -12 -12 -13 -13 -13 -13 -14 -14
-9 -10 -11 -11 -11 -11 -11 -11 -11 -11 -11 -11 -11 -10 -11 -11 -11 -11 -12 -12 -12 -12 -12 -12 -13 -12 -12 -12 -12 -12 -12 -12 -12 -12 -12 -12 -13 -12 -13 -13 -13 -13 -13 -14
-10 -11 -11 -11 -11 -11 -11 -11 -11 -11 -11 -11 -11 -11 -11 -11 -11 -12 -12 -12 -12 -12 -12 -13 -12 -12 -12 -12 -12 -12 -12 -12 -12 -12 -12 -12 -12 -12 -12 -13 -13 -13 -13 -13
-9 -10 -10 -11 -11 -12 -11 -11 -11 -11 -11 -11 -11 -11 -11 -12 -12 -12 -12 -12 -12 -12 -12 -13 -12 -12 -12 -12 -12 -12 -12 -12 -12 -12 -12 -12 -12 -13 -12 -13 -13 -13 -13 -13
-10 -10 -11 -11 -12 -11 -11 -10 -10 -11 -11 -11 -11 -12 -13 -13 -12 -12 -12 -12 -12 -12 -12 -12 -12 -13 -12 -12 -12 -12 -12 -12 -12 -13 -12 -12 -12 -12 -12 -12 -12 -12 -13 -13
-10 -9 -11 -11 -11 -10 -10 -10 -11 -11 -12 -11 -12 -12 -12 -13 -13 -12 -11 -12 -12 -12 -12 -12 -12 -12 -12 -12 -13 -12 -12 -12 -12 -13 -13 -13 -13 -13 -13 -12 -12 -12 -12 -13
-10 -10 -10 -10 -10 -10 -11 -11 -11 -12 -12 -13 -13 -12 -13 -13 -13 -12 -12 -13 -12 -12 -13 -12 -12 -12 -12 -12 -13 -12 -13 -12 -12 -13 -13 -13 -13 -13 -13 -12 -12 -12 -13 -12
-10 -10 -10 -10 -11 -11 -10 -10 -11 -10 -11 -12 -13 -13 -13 -14 -13 -12 -13 -13 -12 -12 -12 -12 -12 -12 -12 -12 -13 -12 -12 -12 -12 -12 -13 -13 -13 -13 -13 -13 -13 -12 -13 -13
-10 -10 -10 -10 -11 -11 -10 -10 -10 -10 -10 -13 -14 -12 -14 -14 -14 -13 -13 -13 -13 -12 -12 -12 -12 -12 -12 -12 -12 -12 -12 -12 -12 -12 -12 -13 -13 -13 -13 -13 -13 -13 -13 -13
-10 -10 -10 -11 -11 -10 -10 -10 -9 -10 -11 -13 -14 -13 -14 -14 -13 -13 -13 -13 -13 -13 -12 -12 -12 -12 -12 -12 -12 -12 -12 -12 -12 -12 -12 -12 -13 -12 -13 -12 -13 -12 -13 -13
-10 -10 -10 -10 -10 -11 -11 -10 -10 -10 -11 -11 -13 -13 -14 -14 -13 -13 -14 -13 -13 -13 -12 -12 -12 -12 -12 -12 -12 -12 -13 -12 -12 -12 -12 -12 -12 -12 -13 -12 -13 -12 -12 -13
-11 -11 -11 -11 -10 -11 -10 -10 -10 -10 -11 -11 -13 -13 -13 -13 -13 -13 -13 -13 -13 -13 -12 -12 -12 -12 -12 -12 -12 -12 -13 -13 -12 -13 -13 -13 -12 -12 -12 -12 -12 -12 -12 -13
-12 -12 -11 -10 -10 -10 -10 -10 -10 -10 -10 -10 -11 -12 -14 -13 -13 -13 -13 -13 -13 -12 -12 -12 -12 -12 -12 -12 -12 -12 -12 -13 -13 -13 -13 -13 -13 -12 -12 -12 -12 -12 -13 -12
-12 -11 -11 -11 -12 -11 -11 -11 -11 -10 -10 -11 -12 -12 -13 -13 -13 -13 -13 -13 -13 -13 -12 -12 -12 -12 -12 -12 -12 -12 -12 -12 -13 -13 -13 -13 -12 -12 -12 -12 -12 -12 -12 -12
-13 -12 -12 -11 -11 -11 -11 -10 -10 -10 -10 -10 -11 -11 -13 -13 -14 -13 -13 -13 -12 -13 -12 -12 -12 -12 -12 -12 -12 -12 -12 -12 -12 -12 -13 -12 -12 -12 -12 -12 -12 -12 -12 -12
-13 -12 -12 -11 -12 -12 -11 -10 -10 -10 -10 -10 -10 -11 -12 -13 -12 -13 -13 -13 -13 -12 -12 -12 -12 -12 -12 -12 -12 -12 -12 -12 -12 -13 -13 -13 -13 -13 -13 -12 -12 -12 -12 -12
-13 -13 -12 -12 -13 -12 -10 -11 -10 -10 -10 -10 -11 -11 -12 -12 -12 -13 -12 -13 -12 -12 -12 -12 -12 -12 -12 -12 -13 -12 -12 -12 -12 -13 -13 -13 -13 -13 -13 -12 -12 -12 -13 -13
-14 -13 -13 -13 -12 -11 -11 -11 -10 -10 -10 -11 -11 -12 -12 -13 -13 -12 -12 -12 -12 -12 -12 -12 -12 -12 -12 -12 -13 -13 -13 -13 -12 -13 -13 -13 -13 -13 -13 -13 -13 -13 -13 -12
-14 -14 -14 -14 -13 -12 -12 -11 -11 -12 -11 -11 -11 -12 -13 -13 -13 -12 -12 -12 -12 -12 -12 -12 -12 -12 -12 -12 -12 -13 -13 -13 -12 -12 -12 -13 -13 -13 -13 -13 -13 -13 -12 -12
-15 -15 -14 -13 -13 -12 -13 -12 -11 -12 -11 -12 -12 -12 -13 -12 -12 -14 -13 -12 -12 -12 -12 -12 -12 -12 -12 -12 -12 -13 -13 -13 -13 -12 -12 -12 -12 -12 -13 -13 -13 -12 -12 -12
-16 -15 -15 -14 -13 -13 -12 -12 -11 -12 -12 -13 -13 -13 -13 -13 -13 -12 -12 -12 -12 -12 -12 -12 -12 -12 -12 -12 -12 -12 -13 -12 -12 -12 -12 -12 -12 -12 -12 -12 -12 -12 -12 -12
-17 -16 -15 -15 -13 -13 -13 -13 -12 -12 -13 -13 -13 -13 -13 -13 -13 -12 -12 -12 -12 -12 -12 -12 -12 -12 -12 -12 -12 -13 -13 -13 -12 -12 -12 -12 -12 -12 -12 -12 -12 -12 -12 -12
-17 -16 -16 -15 -14 -14 -14 -13 -13 -12 -13 -13 -13 -13 -13 -13 -14 -13 -13 -12 -13 -12 -12 -12 -12 -12 -12 -12 -12 -13 -12 -12 -13 -12 -12 -12 -12 -12 -12 -12 -12 -12 -12 -12
-18 -17 -16 -14 -14 -14 -14 -14 -13 -14 -13 -13 -14 -14 -14 -14 -14 -13 -13 -13 -12 -12 -12 -13 -13 -13 -13 -12 -13 -13 -12 -12 -13 -12 -12 -12 -12 -12 -12 -12 -12 -12 -12 -12
-18 -17 -17 -15 -16 -15 -14 -14 -14 -14 -15 -15 -14 -14 -14 -14 -14 -14 -13 -13 -13 -13 -13 -13 -13 -12 -13 -13 -13 -12 -12 -12 -13 -12 -12 -12 -12 -13 -12 -12 -12 -13 -13 -13

GFSCGP_500_temp_009.txt.gz
Temp
-10 -10 -9 -9 -10 -11 -11 -12 -12 -12 -12 -12 -13 -12 -11 -13 -12 -11 -11 -12 -12 -11 -11 -11 -12 -12 -12 -12 -12 -12 -11 -11 -11 -12 -12 -12 -12 -13 -13 -13 -13 -13 -13 -14
-10 -9 -9 -10 -11 -10 -11 -12 -12 -12 -13 -13 -13 -11 -11 -11 -11 -11 -11 -11 -11 -11 -12 -12 -12 -12 -13 -12 -12 -12 -12 -11 -12 -12 -12 -12 -12 -13 -13 -13 -13 -13 -13 -14
-10 -10 -10 -11 -11 -11 -11 -10 -11 -11 -13 -13 -12 -11 -12 -13 -11 -11 -11 -11 -11 -12 -12 -12 -12 -13 -12 -12 -12 -12 -12 -11 -12 -12 -12 -12 -12 -12 -12 -13 -13 -13 -13 -14
-10 -10 -11 -11 -10 -11 -12 -11 -11 -11 -12 -13 -13 -12 -13 -12 -12 -11 -11 -11 -11 -11 -12 -12 -12 -13 -12 -12 -12 -12 -12 -12 -12 -12 -12 -12 -12 -12 -12 -12 -13 -13 -13 -13
-8 -10 -10 -10 -10 -11 -11 -11 -12 -12 -11 -11 -12 -12 -12 -13 -13 -13 -12 -12 -11 -11 -12 -12 -12 -12 -12 -12 -12 -12 -12 -12 -12 -12 -12 -12 -12 -12 -12 -12 -12 -13 -13 -13
-10 -10 -10 -11 -11 -11 -11 -12 -11 -12 -12 -11 -12 -13 -12 -12 -13 -13 -13 -12 -11 -12 -12 -12 -12 -12 -12 -12 -12 -12 -12 -12 -12 -12 -12 -12 -12 -12 -12 -12 -12 -12 -13 -13
-10 -9 -10 -10 -10 -11 -11 -11 -11 -12 -13 -12 -13 -12 -12 -12 -13 -12 -12 -13 -12 -12 -12 -12 -12 -12 -12 -13 -12 -12 -12 -12 -12 -12 -12 -12 -12 -12 -12 -12 -12 -12 -12 -13
-10 -10 -10 -9 -9 -10 -9 -10 -11 -13 -12 -11 -12 -11 -12 -13 -13 -12 -12 -13 -13 -13 -12 -12 -12 -12 -12 -12 -12 -12 -12 -12 -12 -12 -12 -13 -12 -12 -12 -13 -12 -12 -12 -12
-10 -9 -10 -10 -10 -10 -10 -10 -11 -12 -12 -12 -11 -12 -13 -13 -13 -13 -13 -13 -13 -13 -12 -12 -12 -12 -12 -12 -12 -12 -12 -12 -12 -12 -12 -13 -12 -12 -13 -12 -12 -12 -12 -13
-11 -10 -10 -10 -10 -11 -11 -11 -11 -11 -12 -13 -12 -12 -12 -12 -13 -13 -13 -12 -13 -13 -12 -12 -12 -12 -12 -12 -12 -12 -12 -11 -12 -12 -12 -12 -12 -12 -12 -12 -13 -12 -12 -12
-11 -11 -11 -11 -9 -10 -10 -11 -10 -11 -13 -12 -12 -11 -12 -13 -13 -13 -14 -12 -13 -13 -12 -12 -12 -12 -12 -12 -12 -12 -12 -12 -12 -12 -12 -12 -12 -12 -12 -12 -13 -12 -12 -11
-10 -11 -12 -9 -9 -10 -11 -10 -11 -11 -11 -13 -12 -11 -12 -12 -13 -13 -13 -12 -12 -13 -12 -12 -12 -12 -12 -12 -12 -12 -12 -11 -12 -12 -12 -12 -12 -12 -12 -12 -13 -12 -12 -11
-11 -11 -10 -13 -11 -10 -11 -11 -11 -11 -11 -13 -13 -12 -13 -13 -13 -12 -14 -12 -13 -13 -12 -12 -12 -12 -12 -12 -12 -12 -12 -12 -12 -12 -12 -12 -12 -12 -12 -12 -12 -12 -12 -12
-12 -11 -10 -10 -9 -10 -10 -10 -10 -10 -10 -11 -12 -12 -12 -12 -13 -14 -14 -12 -12 -13 -12 -12 -12 -12 -12 -12 -12 -12 -12 -12 -12 -12 -12 -12 -12 -12 -12 -12 -12 -12 -12 -12
-12 -12 -11 -11 -13 -11 -11 -10 -10 -10 -10 -11 -11 -11 -13 -13 -13 -13 -13 -12 -13 -13 -12 -12 -12 -12 -12 -12 -12 -12 -12 -12 -12 -12 -12 -12 -12 -12 -12 -12 -12 -12 -12 -12
-12 -11 -11 -11 -11 -13 -11 -10 -10 -10 -11 -11 -11 -12 -13 -13 -13 -13 -14 -13 -12 -12 -12 -12 -12 -12 -12 -12 -12 -12 -12 -12 -12 -12 -12 -12 -12 -12 -12 -12 -12 -12 -12 -12
-13 -12 -12 -12 -11 -11 -13 -10 -10 -10 -10 -10 -10 -10 -13 -13 -13 -13 -13 -12 -12 -12 -12 -12 -12 -12 -12 -12 -12 -12 -12 -12 -12 -12 -12 -12 -12 -12 -12 -12 -12 -12 -12 -12
-13 -13 -13 -12 -12 -14 -10 -11 -10 -10 -10 -10 -10 -11 -11 -12 -13 -13 -13 -12 -12 -12 -12 -12 -12 -12 -12 -12 -12 -12 -13 -12 -12 -12 -12 -12 -12 -12 -12 -12 -12 -12 -12 -12
-13 -14 -13 -13 -14 -14 -11 -12 -11 -10 -10 -10 -10 -10 -11 -13 -13 -13 -12 -13 -12 -12 -12 -12 -12 -12 -12 -12 -13 -13 -13 -13 -12 -12 -12 -12 -12 -12 -12 -12 -12 -12 -12 -12
-14 -14 -14 -14 -14 -14 -11 -11 -11 -11 -10 -10 -10 -11 -11 -11 -11 -13 -13 -13 -12 -12 -11 -11 -12 -12 -12 -12 -13 -13 -13 -13 -13 -12 -12 -13 -13 -13 -13 -13 -12 -12 -12 -12
-15 -14 -14 -15 -14 -14 -13 -14 -10 -11 -10 -11 -11 -11 -11 -11 -11 -13 -14 -13 -12 -11 -11 -11 -12 -12 -12 -12 -12 -13 -13 -13 -13 -13 -12 -13 -13 -13 -13 -13 -13 -13 -12 -12
-15 -14 -16 -15 -15 -14 -14 -14 -11 -11 -11 -11 -11 -11 -11 -11 -11 -12 -11 -11 -11 -11 -11 -11 -12 -12 -12 -12 -12 -13 -13 -13 -12 -12 -12 -12 -12 -12 -12 -12 -12 -12 -12 -12
-17 -16 -16 -15 -15 -14 -14 -14 -13 -12 -12 -12 -12 -12 -12 -12 -11 -11 -12 -12 -12 -12 -11 -11 -12 -12 -12 -12 -12 -12 -12 -13 -13 -12 -12 -12 -12 -12 -12 -12 -12 -12 -12 -12
-16 -17 -16 -15 -14 -13 -14 -14 -13 -12 -13 -12 -12 -12 -12 -12 -12 -12 -12 -12 -12 -12 -12 -12 -12 -12 -12 -12 -12 -12 -12 -12 -13 -13 -12 -12 -12 -12 -12 -12 -12 -12 -12 -12
-16 -15 -16 -15 -15 -14 -14 -14 -15 -14 -14 -13 -13 -12 -12 -12 -12 -12 -12 -12 -13 -12 -12 -12 -12 -12 -12 -12 -13 -12 -12 -12 -12 -13 -13 -13 -12 -12 -12 -12 -12 -12 -12 -12
-16 -16 -15 -16 -14 -15 -15 -15 -15 -14 -14 -14 -13 -13 -13 -13 -13 -13 -12 -12 -13 -12 -12 -12 -12 -13 -13 -13 -13 -13 -12 -13 -12 -12 -12 -13 -13 -13 -13 -12 -12 -12 -12 -12

GFSCGP_500_temp_012.txt.gz
Temp
-10 -10 -9 -9 -9 -10 -11 -11 -12 -12 -11 -11 -11 -11 -12 -12 -12 -11 -12 -13 -13 -12 -11 -11 -12 -12 -12 -12 -12 -12 -12 -12 -12 -12 -12 -12 -12 -12 -12 -12 -12 -12 -12 -13
-10 -8 -9 -9 -10 -11 -11 -11 -11 -12 -12 -12 -12 -12 -12 -12 -11 -11 -12 -12 -12 -11 -11 -11 -12 -12 -12 -12 -12 -12 -12 -12 -12 -12 -12 -12 -12 -12 -12 -12 -12 -12 -12 -13
-9 -9 -10 -10 -10 -10 -11 -10 -11 -12 -12 -12 -12 -12 -11 -12 -13 -13 -13 -12 -12 -11 -11 -12 -12 -12 -12 -12 -12 -12 -12 -12 -12 -12 -12 -12 -12 -12 -12 -12 -12 -12 -12 -13
-9 -10 -10 -10 -10 -10 -10 -11 -12 -12 -12 -12 -12 -11 -11 -12 -12 -12 -13 -12 -11 -11 -11 -11 -12 -12 -12 -12 -12 -12 -12 -12 -12 -12 -12 -12 -12 -12 -12 -12 -12 -12 -13 -13
-8 -9 -10 -10 -10 -10 -10 -12 -12 -12 -12 -13 -12 -11 -10 -12 -12 -12 -13 -13 -12 -11 -11 -11 -12 -12 -12 -12 -12 -12 -12 -12 -12 -12 -12 -12 -12 -12 -12 -12 -12 -12 -12 -13
-9 -10 -10 -10 -11 -11 -12 -12 -12 -13 -13 -12 -11 -11 -10 -12 -12 -12 -13 -12 -13 -11 -12 -12 -12 -12 -12 -12 -12 -12 -12 -12 -12 -12 -12 -12 -12 -12 -12 -12 -12 -13 -13 -13
-9 -9 -9 -10 -12 -13 -12 -13 -12 -13 -12 -9 -10 -11 -10 -12 -12 -12 -12 -13 -12 -12 -12 -12 -12 -12 -12 -12 -12 -12 -12 -12 -12 -12 -12 -12 -12 -12 -12 -12 -13 -13 -12 -13
-9 -9 -9 -9 -10 -12 -12 -12 -12 -12 -11 -11 -11 -11 -12 -11 -11 -12 -12 -12 -12 -12 -12 -12 -12 -11 -12 -12 -12 -12 -12 -12 -12 -12 -12 -12 -12 -12 -12 -12 -13 -13 -13 -13
-9 -9 -10 -10 -11 -12 -12 -11 -11 -12 -12 -12 -12 -11 -12 -12 -11 -11 -11 -12 -12 -12 -12 -12 -12 -11 -12 -12 -12 -12 -12 -12 -12 -12 -12 -12 -12 -12 -12 -13 -13 -12 -13 -13
-10 -10 -10 -10 -12 -12 -12 -12 -11 -11 -11 -12 -11 -11 -11 -11 -11 -11 -11 -12 -12 -12 -12 -12 -12 -12 -12 -12 -12 -12 -12 -12 -12 -12 -12 -12 -12 -12 -12 -12 -13 -12 -12 -13
-10 -11 -11 -12 -12 -11 -10 -11 -12 -11 -12 -12 -12 -11 -11 -11 -12 -11 -11 -11 -12 -12 -12 -12 -11 -12 -12 -12 -12 -12 -12 -12 -11 -12 -12 -12 -12 -12 -12 -12 -12 -12 -12 -12
-10 -11 -11 -12 -12 -11 -10 -10 -12 -10 -11 -12 -12 -12 -12 -12 -11 -11 -12 -11 -12 -12 -12 -12 -12 -12 -12 -12 -12 -12 -12 -12 -12 -12 -12 -12 -12 -12 -12 -12 -11 -12 -11 -12
-10 -11 -11 -11 -12 -12 -11 -11 -12 -13 -12 -12 -12 -11 -11 -11 -11 -11 -12 -10 -12 -12 -11 -12 -12 -12 -12 -12 -12 -12 -12 -12 -12 -12 -12 -12 -12 -12 -12 -12 -12 -12 -12 -12
-12 -11 -11 -10 -11 -12 -11 -11 -11 -11 -11 -11 -11 -11 -12 -12 -12 -11 -12 -11 -12 -12 -11 -12 -12 -12 -12 -12 -12 -12 -12 -12 -13 -12 -12 -12 -12 -12 -12 -12 -12 -12 -12 -12
-14 -11 -11 -11 -11 -12 -12 -10 -10 -10 -10 -11 -10 -11 -12 -11 -11 -12 -12 -12 -11 -12 -12 -12 -12 -12 -12 -12 -12 -12 -12 -12 -12 -12 -12 -12 -12 -12 -12 -12 -12 -12 -12 -12
-15 -12 -11 -11 -11 -12 -12 -11 -11 -11 -12 -11 -10 -11 -11 -12 -12 -12 -13 -12 -12 -11 -11 -11 -11 -12 -12 -12 -12 -12 -12 -12 -12 -12 -12 -12 -12 -12 -12 -12 -12 -12 -12 -12
-15 -12 -12 -11 -12 -11 -12 -12 -11 -10 -11 -12 -10 -10 -11 -12 -12 -12 -12 -12 -12 -12 -11 -11 -11 -11 -12 -12 -12 -12 -12 -12 -12 -12 -12 -12 -12 -12 -12 -12 -12 -12 -12 -12
-13 -13 -12 -11 -12 -12 -11 -12 -12 -11 -11 -11 -10 -10 -10 -12 -13 -12 -13 -12 -11 -12 -12 -11 -11 -11 -11 -12 -12 -12 -12 -12 -12 -12 -12 -12 -12 -12 -12 -12 -12 -12 -12 -12
-12 -13 -12 -12 -12 -12 -11 -12 -13 -12 -10 -11 -10 -10 -10 -10 -12 -13 -13 -13 -11 -11 -12 -11 -11 -11 -12 -12 -12 -12 -12 -12 -12 -12 -12 -12 -12 -12 -12 -12 -12 -12 -12 -12
-14 -14 -13 -12 -13 -12 -11 -11 -12 -13 -12 -12 -10 -10 -10 -10 -12 -11 -12 -12 -11 -11 -12 -12 -11 -11 -12 -12 -12 -12 -13 -13 -12 -12 -12 -12 -12 -12 -12 -12 -12 -12 -12 -12
-15 -15 -14 -13 -14 -13 -12 -13 -13 -12 -11 -11 -10 -10 -10 -10 -10 -12 -13 -12 -12 -11 -11 -11 -11 -12 -11 -12 -12 -12 -12 -13 -13 -12 -12 -12 -12 -12 -12 -12 -12 -12 -12 -12
-15 -14 -15 -14 -14 -14 -12 -13 -13 -12 -11 -11 -11 -10 -11 -10 -10 -11 -13 -12 -12 -10 -11 -11 -11 -12 -12 -12 -12 -12 -12 -13 -13 -13 -12 -12 -12 -12 -12 -12 -12 -12 -12 -12
-15 -15 -15 -14 -14 -14 -13 -13 -13 -12 -12 -11 -11 -11 -11 -10 -11 -11 -11 -10 -11 -11 -11 -11 -11 -11 -12 -12 -12 -12 -12 -12 -13 -13 -12 -12 -12 -12 -12 -12 -12 -12 -12 -12
-15 -15 -16 -14 -15 -14 -14 -14 -13 -12 -13 -11 -11 -11 -11 -11 -11 -11 -11 -11 -11 -12 -11 -11 -11 -11 -12 -12 -12 -12 -12 -12 -12 -13 -12 -12 -12 -12 -12 -12 -12 -12 -12 -12
-15 -15 -15 -14 -14 -14 -14 -13 -13 -12 -13 -12 -11 -11 -11 -11 -11 -11 -12 -11 -11 -11 -11 -12 -12 -12 -12 -12 -12 -12 -12 -12 -12 -12 -13 -13 -12 -12 -12 -12 -12 -12 -12 -12
-15 -16 -15 -15 -15 -14 -14 -14 -12 -12 -13 -13 -11 -11 -12 -12 -12 -12 -12 -11 -12 -11 -11 -11 -12 -12 -12 -12 -13 -12 -12 -12 -12 -12 -12 -13 -13 -13 -13 -13 -13 -13 -12 -12

GFSCGP_500_temp_015.txt.gz
Temp
-10 -9 -8 -9 -10 -10 -10 -11 -11 -10 -10 -12 -11 -11 -11 -12 -11 -11 -12 -13 -12 -12 -12 -11 -12 -13 -13 -13 -13 -13 -12 -12 -12 -12 -12 -12 -12 -12 -12 -12 -12 -12 -13 -13
-9 -8 -9 -10 -10 -10 -10 -11 -11 -11 -11 -12 -11 -11 -12 -12 -12 -12 -12 -13 -11 -11 -11 -12 -12 -13 -13 -13 -13 -12 -12 -12 -12 -12 -12 -12 -12 -12 -12 -12 -12 -12 -13 -13
-9 -8 -10 -10 -10 -10 -10 -10 -11 -11 -11 -12 -12 -12 -11 -11 -12 -12 -12 -12 -11 -11 -11 -12 -12 -12 -12 -13 -13 -12 -12 -12 -12 -12 -12 -12 -12 -12 -12 -12 -12 -12 -13 -13
-9 -10 -9 -10 -10 -10 -10 -11 -11 -11 -11 -11 -11 -10 -10 -10 -11 -12 -12 -11 -12 -11 -11 -12 -12 -12 -12 -13 -13 -12 -12 -12 -12 -12 -12 -12 -12 -12 -12 -12 -12 -12 -12 -13
-8 -9 -9 -9 -9 -10 -10 -11 -11 -12 -12 -12 -12 -11 -9 -11 -11 -11 -11 -11 -11 -11 -12 -12 -12 -12 -12 -12 -12 -12 -12 -12 -12 -12 -12 -12 -12 -12 -12 -12 -12 -12 -12 -13
-9 -9 -9 -9 -10 -11 -11 -11 -11 -12 -12 -12 -11 -11 -10 -11 -11 -11 -11 -11 -12 -12 -12 -12 -12 -12 -12 -12 -12 -12 -12 -12 -12 -12 -12 -12 -12 -12 -12 -13 -12 -12 -13 -13
-9 -8 -9 -9 -9 -11 -11 -13 -12 -13 -12 -10 -10 -12 -11 -11 -11 -12 -11 -11 -12 -11 -12 -12 -12 -12 -12 -12 -12 -12 -12 -12 -12 -12 -12 -12 -12 -12 -12 -13 -13 -13 -13 -13
-9 -9 -8 -9 -9 -9 -10 -13 -12 -12 -11 -10 -12 -11 -10 -11 -12 -11 -12 -11 -11 -11 -11 -11 -12 -12 -12 -12 -12 -12 -12 -12 -12 -12 -12 -12 -12 -12 -12 -13 -13 -13 -13 -13
-9 -9 -9 -10 -10 -10 -11 -11 -11 -12 -12 -12 -12 -11 -12 -11 -11 -12 -11 -11 -11 -11 -11 -11 -12 -12 -12 -12 -12 -12 -12 -12 -12 -12 -12 -12 -12 -12 -12 -13 -13 -12 -13 -13
-10 -10 -10 -10 -11 -10 -11 -11 -13 -12 -12 -11 -10 -11 -11 -11 -12 -11 -11 -10 -11 -11 -11 -11 -11 -11 -11 -12 -12 -12 -12 -12 -12 -12 -12 -12 -12 -12 -12 -12 -12 -12 -13 -12
-11 -11 -10 -11 -10 -10 -11 -13 -13 -13 -12 -11 -11 -11 -11 -11 -12 -11 -10 -11 -12 -12 -11 -11 -11 -11 -12 -12 -12 -12 -12 -12 -12 -12 -12 -11 -12 -12 -13 -12 -12 -12 -12 -13
-10 -11 -11 -10 -10 -11 -11 -12 -12 -12 -10 -10 -11 -11 -11 -11 -11 -11 -11 -11 -11 -11 -11 -11 -11 -11 -12 -11 -12 -12 -12 -12 -12 -12 -12 -12 -12 -12 -12 -12 -13 -12 -12 -13
-12 -12 -11 -11 -11 -12 -12 -11 -12 -12 -12 -11 -11 -11 -12 -12 -12 -11 -11 -11 -11 -11 -11 -11 -11 -11 -12 -12 -12 -12 -12 -12 -12 -13 -12 -12 -12 -12 -12 -12 -13 -13 -12 -12
-14 -12 -11 -10 -10 -10 -11 -11 -12 -12 -11 -10 -10 -11 -12 -12 -12 -11 -11 -10 -12 -11 -11 -11 -11 -11 -12 -12 -12 -12 -12 -12 -12 -13 -13 -12 -12 -12 -12 -12 -12 -13 -12 -12
-14 -12 -11 -11 -11 -11 -12 -11 -10 -10 -10 -10 -10 -11 -12 -11 -12 -11 -11 -10 -11 -11 -11 -11 -11 -11 -12 -12 -12 -12 -12 -12 -12 -12 -12 -12 -12 -12 -12 -12 -12 -12 -12 -11
-13 -11 -11 -11 -11 -11 -12 -12 -11 -11 -11 -10 -10 -11 -11 -12 -12 -12 -11 -10 -11 -11 -12 -11 -11 -11 -12 -12 -12 -12 -12 -12 -12 -12 -12 -12 -12 -12 -11 -12 -12 -12 -13 -12
-13 -11 -12 -11 -12 -12 -12 -12 -11 -10 -11 -11 -10 -10 -11 -12 -12 -12 -11 -10 -10 -11 -11 -11 -11 -11 -11 -11 -12 -12 -12 -12 -12 -12 -12 -12 -12 -12 -12 -12 -12 -12 -13 -13
-12 -11 -11 -12 -12 -12 -11 -11 -10 -11 -11 -11 -10 -10 -11 -11 -12 -12 -12 -10 -10 -11 -11 -11 -11 -11 -11 -11 -12 -12 -12 -12 -12 -12 -12 -12 -12 -12 -12 -12 -12 -12 -12 -13
-13 -12 -11 -11 -12 -11 -11 -12 -11 -11 -10 -11 -11 -10 -10 -11 -12 -12 -11 -11 -10 -10 -11 -11 -11 -11 -11 -11 -11 -12 -12 -12 -12 -12 -12 -12 -12 -12 -12 -12 -12 -12 -12 -12
-14 -13 -12 -11 -13 -11 -11 -11 -11 -12 -12 -12 -11 -10 -10 -10 -11 -11 -10 -10 -10 -10 -10 -11 -11 -11 -11 -11 -11 -12 -12 -12 -12 -12 -12 -12 -12 -13 -12 -12 -12 -12 -12 -12
-14 -15 -14 -12 -13 -12 -11 -11 -12 -12 -11 -12 -10 -10 -10 -10 -10 -10 -11 -11 -10 -10 -10 -11 -12 -11 -11 -11 -11 -11 -12 -12 -12 -12 -12 -12 -13 -13 -13 -12 -12 -12 -12 -12
-14 -15 -15 -13 -13 -12 -11 -11 -11 -12 -12 -11 -11 -10 -10 -10 -11 -10 -11 -10 -10 -9 -10 -11 -12 -12 -11 -12 -11 -11 -12 -12 -12 -12 -12 -12 -13 -13 -13 -13 -13 -12 -12 -12
-15 -15 -14 -14 -13 -11 -11 -12 -13 -13 -12 -12 -12 -11 -10 -10 -10 -11 -11 -10 -10 -10 -10 -11 -11 -11 -11 -11 -11 -11 -12 -12 -12 -12 -12 -12 -12 -12 -12 -12 -12 -12 -12 -12
-14 -14 -13 -14 -14 -14 -14 -14 -13 -13 -13 -12 -12 -11 -11 -10 -10 -11 -11 -10 -10 -10 -10 -10 -11 -11 -11 -11 -11 -11 -11 -12 -12 -12 -12 -12 -12 -12 -12 -12 -12 -12 -12 -12
-14 -15 -15 -15 -14 -14 -13 -13 -13 -13 -13 -13 -13 -12 -11 -11 -11 -11 -11 -10 -10 -10 -10 -10 -11 -12 -11 -11 -11 -11 -11 -12 -12 -12 -12 -12 -12 -12 -12 -12 -13 -12 -12 -12
-16 -15 -15 -14 -14 -14 -14 -13 -13 -13 -12 -12 -12 -12 -11 -11 -11 -11 -11 -10 -10 -11 -11 -10 -11 -12 -12 -11 -11 -11 -12 -12 -12 -12 -12 -12 -13 -13 -13 -12 -12 -12 -12 -13

GFSCGP_500_temp_021.txt.gz
Temp
-13 -13 -9 -9 -10 -11 -13 -13 -11 -10 -12 -11 -10 -10 -9 -10 -9 -11 -11 -11 -11 -12 -13 -13 -13 -13 -13 -14 -13 -13 -13 -13 -14 -13 -13 -13 -13 -13 -13 -12 -13 -13 -13 -13
-13 -9 -10 -11 -11 -12 -12 -12 -10 -10 -12 -11 -10 -10 -10 -9 -10 -10 -11 -11 -11 -12 -12 -12 -13 -13 -13 -13 -13 -13 -13 -13 -13 -13 -13 -13 -13 -13 -13 -13 -12 -13 -13 -13
-11 -9 -12 -12 -12 -12 -11 -11 -11 -11 -12 -12 -11 -10 -10 -10 -11 -11 -11 -11 -11 -11 -12 -12 -13 -13 -13 -14 -13 -13 -13 -13 -13 -13 -13 -12 -13 -13 -13 -13 -12 -13 -13 -13
-11 -12 -11 -12 -11 -12 -11 -11 -12 -11 -11 -11 -11 -9 -10 -10 -11 -11 -11 -11 -11 -12 -12 -13 -13 -14 -13 -13 -13 -12 -12 -13 -13 -12 -13 -12 -12 -13 -13 -12 -13 -13 -13 -13
-9 -11 -10 -11 -10 -11 -11 -12 -11 -11 -11 -11 -11 -10 -9 -11 -10 -12 -10 -11 -12 -12 -12 -13 -12 -12 -12 -12 -12 -12 -12 -12 -12 -12 -12 -12 -12 -13 -13 -12 -13 -13 -13 -14
-11 -11 -12 -10 -11 -11 -12 -11 -11 -11 -11 -10 -11 -10 -8 -10 -12 -10 -11 -11 -11 -11 -12 -12 -12 -12 -12 -12 -12 -12 -12 -12 -12 -12 -12 -12 -12 -12 -12 -13 -13 -13 -13 -14
-11 -10 -11 -11 -10 -11 -11 -11 -11 -10 -10 -9 -11 -10 -9 -10 -11 -10 -11 -11 -11 -11 -12 -12 -12 -11 -11 -12 -12 -12 -12 -12 -12 -12 -12 -12 -12 -12 -12 -12 -13 -13 -13 -14
-11 -10 -10 -10 -10 -10 -10 -11 -10 -9 -10 -10 -10 -8 -10 -11 -11 -10 -11 -11 -12 -11 -12 -12 -12 -11 -11 -12 -12 -12 -12 -12 -12 -12 -12 -12 -12 -12 -12 -12 -12 -13 -13 -14
-11 -11 -12 -11 -11 -11 -10 -10 -11 -11 -10 -10 -10 -9 -11 -11 -9 -11 -11 -11 -12 -12 -12 -12 -11 -11 -12 -12 -12 -12 -12 -12 -12 -12 -12 -12 -12 -12 -12 -12 -12 -13 -13 -13
-12 -11 -11 -12 -12 -11 -11 -11 -11 -10 -10 -10 -10 -9 -10 -10 -10 -11 -11 -11 -12 -12 -12 -11 -11 -12 -12 -12 -11 -12 -12 -12 -12 -12 -12 -12 -12 -12 -12 -12 -13 -13 -13 -13
-12 -12 -12 -12 -10 -10 -10 -9 -11 -10 -10 -9 -9 -9 -9 -11 -11 -11 -11 -12 -13 -12 -11 -11 -11 -11 -11 -12 -11 -12 -12 -12 -12 -12 -12 -12 -12 -12 -13 -13 -13 -12 -13 -13
-12 -11 -11 -11 -11 -11 -11 -10 -10 -9 -9 -10 -10 -9 -10 -10 -10 -10 -11 -12 -12 -11 -11 -11 -11 -11 -11 -12 -11 -12 -12 -12 -12 -12 -12 -12 -12 -12 -12 -12 -12 -12 -13 -13
-12 -11 -12 -12 -11 -11 -10 -9 -10 -10 -10 -10 -10 -10 -10 -10 -10 -10 -12 -12 -11 -11 -11 -11 -11 -11 -11 -12 -11 -12 -12 -12 -13 -13 -12 -12 -12 -12 -12 -12 -12 -12 -13 -13
-11 -10 -10 -10 -10 -10 -10 -10 -10 -11 -11 -10 -9 -11 -10 -10 -10 -11 -11 -12 -11 -12 -11 -11 -11 -11 -12 -12 -12 -12 -12 -12 -12 -12 -12 -12 -12 -12 -12 -12 -12 -13 -13 -13
-11 -10 -10 -10 -11 -11 -10 -10 -10 -10 -9 -10 -9 -10 -10 -10 -11 -11 -11 -11 -12 -12 -11 -11 -11 -11 -11 -12 -12 -11 -12 -12 -12 -12 -12 -12 -12 -12 -12 -12 -12 -13 -13 -12
-11 -11 -10 -10 -11 -10 -10 -11 -11 -10 -10 -10 -10 -11 -11 -11 -11 -10 -11 -12 -12 -12 -11 -11 -11 -11 -11 -12 -12 -11 -11 -12 -12 -12 -12 -12 -12 -12 -12 -12 -12 -12 -12 -12
-12 -11 -10 -10 -11 -11 -11 -10 -10 -10 -10 -9 -9 -10 -11 -11 -10 -10 -10 -11 -12 -11 -11 -11 -11 -11 -11 -11 -12 -11 -11 -11 -12 -12 -12 -12 -11 -12 -12 -12 -12 -12 -12 -12
-13 -11 -11 -10 -11 -13 -8 -10 -10 -10 -10 -10 -10 -11 -11 -10 -10 -10 -10 -11 -11 -11 -11 -11 -11 -11 -11 -11 -12 -12 -11 -11 -12 -12 -12 -12 -12 -12 -12 -13 -13 -12 -12 -12
-14 -12 -11 -11 -12 -10 -9 -11 -10 -10 -10 -10 -10 -11 -11 -12 -12 -11 -10 -10 -11 -11 -11 -11 -11 -11 -11 -11 -12 -12 -12 -12 -12 -12 -12 -12 -12 -12 -12 -12 -12 -12 -12 -12
-15 -13 -12 -12 -12 -10 -11 -11 -12 -12 -10 -10 -10 -11 -11 -11 -11 -10 -10 -10 -11 -11 -11 -11 -11 -11 -11 -11 -12 -12 -12 -12 -12 -12 -12 -12 -12 -12 -12 -12 -12 -12 -12 -12
-17 -15 -14 -14 -13 -12 -12 -12 -12 -12 -10 -11 -11 -11 -12 -11 -10 -10 -10 -10 -11 -11 -11 -11 -11 -11 -11 -11 -11 -12 -12 -12 -12 -12 -12 -12 -12 -12 -12 -12 -12 -12 -12 -12
-16 -16 -16 -16 -14 -13 -14 -13 -13 -12 -11 -11 -11 -11 -11 -11 -11 -10 -10 -10 -10 -10 -11 -11 -11 -11 -11 -11 -12 -12 -12 -12 -12 -12 -12 -12 -12 -12 -12 -12 -12 -12 -12 -12
-16 -16 -16 -16 -15 -14 -14 -13 -12 -13 -11 -11 -11 -11 -11 -11 -11 -10 -10 -10 -10 -10 -10 -11 -11 -10 -11 -11 -12 -12 -12 -12 -12 -12 -12 -12 -12 -12 -12 -13 -12 -12 -12 -12
-16 -16 -15 -16 -15 -14 -14 -13 -13 -13 -12 -11 -11 -11 -11 -11 -11 -10 -10 -10 -10 -10 -10 -11 -10 -10 -10 -11 -11 -12 -12 -12 -12 -12 -12 -12 -12 -12 -12 -12 -12 -12 -12 -12
-18 -16 -16 -16 -15 -15 -14 -13 -13 -13 -13 -12 -11 -11 -11 -11 -10 -10 -10 -10 -10 -10 -10 -10 -11 -10 -10 -11 -11 -11 -12 -12 -12 -12 -12 -12 -12 -12 -12 -12 -12 -12 -13 -13
-18 -17 -16 -16 -15 -14 -13 -14 -13 -13 -13 -13 -12 -11 -11 -11 -11 -10 -10 -10 -10 -10 -10 -10 -11 -10 -10 -10 -11 -11 -11 -11 -12 -12 -12 -12 -12 -12 -12 -12 -13 -13 -12 -12

GFSCGP_500_temp_024.txt.gz
Temp
-12 -12 -10 -9 -9 -10 -11 -11 -10 -11 -11 -13 -12 -12 -10 -10 -11 -10 -10 -9 -10 -11 -11 -11 -12 -12 -13 -13 -13 -13 -13 -13 -13 -13 -13 -13 -13 -13 -13 -13 -13 -13 -13 -13
-13 -10 -10 -10 -11 -12 -12 -12 -11 -11 -13 -12 -12 -11 -10 -10 -11 -11 -10 -10 -11 -11 -11 -11 -12 -13 -13 -13 -13 -12 -13 -13 -13 -13 -13 -13 -13 -13 -13 -13 -13 -13 -13 -13
-13 -10 -12 -12 -12 -12 -11 -11 -11 -13 -13 -12 -13 -10 -11 -11 -11 -11 -10 -10 -10 -11 -11 -11 -12 -13 -14 -13 -13 -13 -13 -13 -13 -13 -13 -13 -13 -12 -13 -13 -13 -13 -13 -13
-12 -12 -12 -11 -11 -12 -12 -12 -12 -13 -13 -12 -12 -9 -10 -10 -11 -11 -10 -11 -10 -11 -11 -12 -12 -13 -12 -12 -12 -12 -13 -13 -12 -13 -13 -13 -12 -12 -12 -13 -13 -13 -13 -13
-10 -11 -11 -11 -11 -13 -11 -13 -13 -13 -12 -12 -11 -10 -9 -11 -11 -11 -11 -10 -11 -11 -11 -12 -11 -12 -11 -11 -12 -12 -12 -12 -12 -13 -13 -13 -12 -12 -12 -13 -13 -13 -13 -14
-11 -12 -12 -12 -13 -13 -13 -13 -13 -13 -12 -11 -10 -11 -8 -10 -11 -11 -11 -11 -11 -12 -12 -11 -11 -11 -11 -11 -11 -12 -12 -12 -12 -12 -12 -12 -12 -12 -12 -13 -13 -13 -13 -14
-11 -11 -11 -12 -13 -12 -12 -12 -12 -12 -11 -10 -10 -11 -8 -11 -11 -11 -11 -11 -12 -12 -12 -11 -11 -11 -11 -11 -11 -12 -12 -12 -12 -12 -12 -12 -12 -12 -12 -12 -12 -13 -13 -13
-12 -12 -11 -11 -11 -12 -12 -12 -12 -11 -11 -11 -10 -9 -8 -11 -11 -10 -11 -12 -11 -11 -11 -11 -11 -11 -11 -11 -11 -11 -12 -12 -12 -12 -12 -12 -12 -12 -12 -12 -13 -13 -13 -13
-12 -12 -12 -12 -12 -12 -11 -11 -12 -11 -11 -10 -9 -9 -9 -11 -11 -10 -11 -12 -11 -11 -12 -12 -11 -11 -11 -11 -11 -12 -12 -12 -12 -12 -12 -12 -12 -12 -12 -13 -13 -13 -13 -13
-12 -12 -12 -12 -13 -12 -11 -12 -11 -10 -10 -9 -9 -9 -10 -11 -11 -11 -11 -11 -11 -11 -11 -11 -11 -11 -11 -11 -11 -12 -12 -12 -12 -12 -12 -12 -12 -12 -12 -13 -13 -13 -13 -13
-12 -12 -12 -12 -11 -11 -11 -11 -10 -10 -10 -10 -9 -9 -10 -11 -10 -11 -11 -11 -11 -11 -11 -11 -11 -11 -11 -11 -11 -12 -12 -12 -12 -12 -12 -12 -12 -12 -12 -13 -13 -12 -13 -13
-13 -12 -12 -12 -12 -12 -11 -11 -10 -9 -9 -9 -9 -9 -10 -11 -11 -11 -12 -11 -11 -11 -12 -11 -11 -11 -11 -11 -11 -12 -12 -12 -13 -13 -12 -12 -12 -12 -12 -13 -13 -12 -13 -13
-13 -12 -12 -12 -12 -11 -10 -9 -9 -10 -10 -9 -10 -10 -11 -11 -10 -11 -11 -11 -11 -11 -11 -11 -11 -11 -11 -11 -11 -12 -12 -12 -12 -12 -12 -12 -12 -12 -12 -12 -13 -12 -13 -13
-12 -12 -12 -11 -10 -11 -10 -11 -11 -11 -10 -9 -9 -12 -11 -11 -10 -11 -11 -11 -11 -11 -10 -11 -11 -11 -11 -11 -12 -12 -12 -12 -12 -12 -12 -12 -12 -12 -12 -12 -12 -12 -12 -13
-13 -12 -11 -11 -11 -11 -11 -11 -10 -9 -9 -10 -10 -11 -11 -10 -10 -11 -12 -11 -11 -11 -11 -11 -11 -11 -11 -11 -11 -12 -12 -12 -12 -12 -12 -12 -12 -12 -12 -12 -12 -12 -12 -12
-13 -13 -11 -11 -12 -11 -10 -10 -10 -10 -10 -10 -11 -11 -12 -11 -11 -13 -12 -11 -12 -11 -11 -11 -11 -11 -10 -11 -11 -12 -12 -11 -11 -12 -12 -12 -12 -12 -12 -12 -12 -12 -12 -12
-14 -13 -12 -12 -12 -12 -11 -9 -9 -10 -10 -10 -10 -11 -11 -11 -11 -12 -12 -12 -13 -12 -11 -11 -11 -11 -10 -11 -11 -12 -12 -11 -11 -12 -12 -12 -12 -12 -12 -12 -12 -12 -12 -12
-15 -13 -12 -12 -13 -12 -10 -11 -10 -10 -10 -10 -10 -12 -12 -11 -11 -12 -12 -12 -12 -12 -11 -11 -11 -11 -11 -11 -11 -12 -12 -12 -12 -12 -12 -12 -12 -12 -12 -12 -13 -12 -12 -12
-17 -14 -13 -14 -12 -11 -11 -11 -11 -11 -10 -10 -10 -11 -12 -12 -12 -12 -12 -11 -12 -12 -11 -11 -11 -11 -11 -11 -11 -11 -12 -12 -12 -12 -12 -12 -12 -12 -12 -12 -12 -12 -12 -12
-17 -15 -14 -13 -12 -12 -12 -12 -12 -11 -10 -10 -10 -11 -12 -12 -11 -11 -11 -11 -11 -12 -11 -11 -11 -11 -11 -11 -11 -11 -12 -12 -12 -12 -12 -12 -12 -12 -12 -12 -12 -12 -12 -12
-17 -17 -15 -14 -12 -12 -13 -12 -12 -11 -10 -10 -10 -11 -11 -10 -10 -11 -11 -12 -12 -12 -11 -11 -11 -11 -11 -11 -11 -11 -11 -12 -12 -12 -12 -12 -12 -12 -12 -12 -12 -12 -12 -12
-18 -17 -16 -15 -13 -13 -13 -12 -12 -12 -10 -10 -10 -11 -10 -10 -11 -11 -12 -11 -11 -11 -11 -11 -11 -11 -12 -11 -11 -11 -11 -12 -12 -12 -12 -12 -12 -12 -12 -12 -12 -12 -12 -12
-18 -18 -17 -16 -14 -14 -14 -12 -11 -12 -11 -11 -10 -11 -11 -10 -10 -10 -12 -11 -11 -11 -11 -11 -11 -11 -11 -12 -11 -11 -11 -12 -12 -12 -12 -12 -12 -12 -12 -13 -12 -12 -12 -12
-18 -18 -17 -16 -15 -14 -14 -13 -12 -12 -11 -10 -10 -11 -11 -11 -11 -10 -11 -11 -11 -11 -11 -11 -11 -11 -11 -11 -11 -11 -11 -11 -12 -12 -12 -12 -12 -12 -13 -13 -13 -12 -12 -12
-19 -18 -17 -16 -16 -15 -14 -15 -13 -13 -12 -11 -11 -11 -11 -11 -11 -11 -10 -11 -11 -11 -11 -11 -11 -11 -10 -11 -11 -11 -11 -11 -11 -12 -12 -12 -12 -12 -12 -13 -12 -12 -12 -12
-19 -18 -17 -17 -16 -15 -15 -14 -14 -13 -13 -12 -11 -11 -11 -11 -11 -11 -11 -11 -11 -11 -11 -11 -11 -11 -10 -10 -11 -11 -11 -11 -11 -11 -11 -12 -12 -12 -12 -12 -13 -13 -12 -12

GFSCGP_500_temp_027.txt.gz
Temp
-12 -12 -10 -10 -10 -11 -11 -11 -11 -11 -11 -12 -11 -11 -11 -13 -13 -11 -11 -10 -10 -10 -11 -11 -11 -11 -11 -12 -13 -13 -13 -13 -13 -13 -13 -13 -13 -13 -13 -12 -12 -13 -13 -13
-13 -11 -9 -11 -12 -12 -12 -11 -10 -11 -12 -12 -12 -11 -12 -13 -12 -11 -10 -10 -10 -10 -11 -11 -11 -10 -11 -12 -12 -13 -13 -13 -13 -13 -13 -13 -13 -12 -12 -12 -12 -13 -13 -13
-12 -8 -12 -12 -12 -12 -11 -11 -11 -11 -12 -13 -12 -11 -12 -13 -11 -11 -10 -10 -11 -11 -11 -11 -10 -11 -11 -11 -12 -12 -12 -12 -12 -13 -12 -12 -12 -12 -12 -12 -13 -13 -13 -13
-12 -11 -12 -12 -12 -12 -11 -11 -12 -13 -13 -12 -13 -10 -11 -11 -11 -10 -10 -10 -11 -11 -11 -11 -11 -11 -11 -11 -11 -11 -12 -12 -12 -12 -12 -12 -12 -12 -12 -12 -12 -13 -13 -13
-10 -11 -11 -12 -11 -12 -11 -13 -13 -13 -13 -12 -12 -11 -8 -11 -10 -10 -10 -11 -11 -11 -10 -11 -11 -12 -11 -11 -11 -11 -11 -12 -12 -12 -12 -12 -12 -12 -12 -12 -13 -13 -13 -13
-12 -12 -13 -11 -12 -12 -13 -13 -12 -12 -12 -12 -10 -12 -9 -10 -11 -11 -11 -12 -11 -11 -11 -11 -12 -12 -11 -11 -11 -11 -11 -11 -12 -12 -12 -12 -12 -12 -12 -13 -13 -13 -13 -13
-13 -11 -11 -12 -12 -12 -13 -13 -11 -12 -13 -9 -10 -11 -9 -10 -11 -10 -11 -11 -11 -11 -12 -11 -12 -11 -11 -10 -11 -11 -11 -11 -11 -12 -12 -12 -12 -12 -12 -13 -13 -13 -13 -13
-13 -12 -11 -11 -11 -11 -12 -12 -11 -11 -11 -10 -11 -9 -8 -10 -11 -11 -11 -10 -11 -11 -11 -11 -11 -11 -11 -11 -11 -11 -11 -11 -12 -12 -12 -12 -12 -12 -13 -13 -13 -13 -13 -13
-14 -12 -12 -12 -12 -12 -12 -11 -12 -12 -11 -11 -10 -9 -9 -10 -11 -10 -11 -11 -11 -12 -11 -11 -11 -11 -11 -11 -11 -11 -11 -11 -12 -12 -12 -12 -12 -12 -13 -12 -13 -13 -13 -14
-14 -12 -13 -13 -13 -12 -11 -13 -12 -11 -10 -10 -9 -9 -9 -10 -10 -10 -10 -11 -12 -11 -11 -11 -11 -11 -11 -11 -11 -11 -11 -12 -12 -12 -12 -12 -12 -12 -12 -12 -12 -12 -13 -14
-15 -13 -13 -14 -11 -11 -12 -11 -11 -12 -11 -10 -9 -8 -10 -10 -10 -11 -11 -11 -11 -11 -11 -11 -11 -11 -11 -11 -11 -11 -12 -12 -12 -12 -13 -12 -12 -12 -12 -12 -13 -13 -13 -13
-16 -13 -14 -12 -12 -12 -12 -12 -11 -11 -10 -10 -10 -9 -10 -11 -11 -11 -11 -11 -11 -11 -10 -11 -11 -11 -11 -11 -11 -11 -12 -12 -12 -12 -12 -12 -12 -12 -12 -12 -13 -13 -13 -13
-16 -14 -15 -14 -13 -13 -11 -11 -11 -12 -11 -10 -10 -10 -11 -11 -11 -11 -11 -11 -11 -10 -11 -11 -11 -11 -11 -11 -12 -11 -12 -12 -12 -12 -12 -12 -12 -13 -12 -12 -12 -12 -13 -13
-16 -15 -13 -14 -12 -12 -11 -11 -11 -11 -10 -10 -9 -11 -11 -11 -11 -12 -12 -11 -11 -11 -11 -11 -11 -11 -10 -11 -11 -11 -11 -12 -12 -12 -12 -12 -12 -12 -12 -12 -12 -12 -12 -13
-16 -15 -13 -13 -13 -12 -11 -11 -10 -10 -10 -10 -10 -11 -11 -12 -12 -11 -12 -12 -11 -11 -11 -11 -11 -11 -11 -11 -11 -11 -11 -11 -12 -12 -12 -12 -12 -12 -12 -12 -12 -12 -12 -13
-17 -16 -13 -13 -13 -12 -11 -11 -11 -10 -11 -10 -10 -11 -11 -12 -12 -12 -12 -12 -12 -11 -11 -11 -11 -11 -11 -11 -11 -11 -11 -11 -12 -12 -11 -12 -12 -12 -12 -12 -12 -12 -12 -12
-19 -16 -14 -15 -13 -13 -12 -11 -10 -10 -11 -10 -11 -12 -12 -11 -12 -12 -12 -12 -12 -11 -11 -11 -11 -11 -11 -11 -11 -11 -11 -11 -12 -11 -11 -12 -12 -12 -12 -12 -12 -12 -12 -12
-19 -17 -15 -15 -14 -13 -12 -11 -11 -11 -11 -10 -11 -12 -13 -12 -13 -12 -12 -13 -12 -11 -12 -11 -11 -11 -11 -11 -11 -11 -11 -11 -11 -12 -12 -12 -12 -12 -12 -12 -12 -12 -12 -12
-19 -18 -17 -16 -15 -13 -12 -12 -11 -11 -11 -10 -11 -12 -12 -12 -12 -11 -11 -12 -13 -12 -12 -11 -11 -11 -11 -11 -11 -11 -11 -11 -11 -12 -12 -12 -12 -12 -12 -12 -12 -12 -12 -12
-19 -18 -17 -16 -15 -14 -13 -13 -12 -11 -11 -10 -11 -12 -12 -11 -10 -11 -11 -12 -13 -12 -11 -11 -11 -11 -11 -11 -11 -11 -11 -11 -11 -12 -12 -12 -12 -12 -12 -12 -12 -12 -12 -12
-19 -18 -17 -16 -15 -15 -14 -13 -13 -12 -11 -10 -11 -12 -11 -10 -11 -11 -11 -11 -13 -12 -12 -12 -11 -11 -11 -11 -11 -12 -12 -12 -12 -11 -12 -12 -12 -12 -12 -12 -12 -12 -12 -12
-20 -19 -17 -16 -15 -16 -15 -13 -13 -12 -11 -10 -11 -12 -11 -10 -11 -11 -11 -12 -12 -12 -12 -11 -11 -11 -11 -11 -11 -12 -12 -12 -12 -12 -12 -12 -12 -12 -12 -12 -12 -12 -12 -12
-20 -19 -18 -16 -16 -15 -16 -14 -13 -12 -11 -11 -11 -11 -11 -11 -11 -11 -11 -10 -12 -12 -12 -11 -12 -11 -11 -11 -11 -11 -12 -12 -12 -12 -12 -12 -12 -12 -12 -12 -12 -12 -12 -12
-20 -19 -18 -17 -17 -16 -16 -14 -13 -12 -12 -11 -11 -11 -11 -11 -11 -11 -10 -10 -11 -12 -12 -12 -12 -11 -11 -11 -11 -11 -12 -11 -12 -12 -12 -12 -12 -12 -12 -12 -12 -12 -12 -12
-20 -19 -19 -18 -17 -17 -16 -15 -14 -12 -12 -12 -12 -11 -11 -11 -11 -11 -11 -11 -11 -11 -11 -11 -11 -12 -11 -11 -11 -11 -11 -11 -11 -11 -12 -12 -12 -12 -12 -12 -12 -12 -12 -12
-19 -18 -19 -18 -17 -16 -16 -15 -14 -14 -12 -12 -12 -11 -12 -12 -12 -12 -11 -11 -11 -11 -11 -11 -12 -12 -12 -11 -11 -11 -11 -11 -11 -11 -11 -12 -12 -12 -12 -12 -12 -12 -12 -12

GFSCGP_500_temp_030.txt.gz
Temp
-11 -12 -10 -9 -9 -10 -11 -11 -11 -10 -12 -12 -11 -10 -10 -11 -10 -11 -12 -11 -10 -10 -10 -10 -10 -11 -11 -11 -11 -11 -11 -13 -13 -13 -13 -13 -13 -13 -13 -13 -12 -12 -12 -12
-12 -11 -8 -10 -11 -11 -11 -11 -11 -12 -12 -12 -11 -11 -11 -12 -11 -11 -11 -11 -10 -10 -10 -10 -10 -10 -11 -11 -11 -11 -11 -12 -12 -12 -13 -13 -13 -13 -13 -12 -12 -12 -12 -12
-12 -8 -11 -11 -11 -11 -10 -11 -12 -12 -13 -13 -12 -11 -10 -11 -11 -10 -11 -11 -11 -10 -10 -10 -11 -11 -11 -11 -11 -11 -11 -11 -12 -12 -12 -13 -12 -12 -12 -12 -12 -12 -12 -13
-12 -10 -11 -12 -11 -11 -10 -11 -12 -13 -13 -12 -13 -11 -9 -10 -10 -10 -11 -11 -11 -10 -11 -11 -11 -11 -11 -11 -11 -11 -11 -11 -11 -12 -12 -12 -12 -12 -12 -12 -12 -12 -12 -12
-10 -11 -11 -11 -9 -11 -9 -12 -12 -12 -12 -12 -11 -11 -8 -10 -9 -11 -11 -10 -10 -11 -11 -11 -10 -10 -11 -11 -11 -11 -11 -11 -11 -12 -12 -12 -12 -12 -12 -12 -12 -13 -13 -13
-12 -13 -13 -10 -11 -11 -12 -12 -12 -12 -12 -11 -10 -11 -9 -8 -11 -11 -11 -11 -10 -11 -11 -11 -10 -11 -11 -11 -11 -10 -11 -11 -11 -11 -11 -11 -11 -12 -12 -12 -13 -13 -13 -13
-14 -14 -12 -12 -12 -11 -12 -12 -12 -11 -11 -10 -10 -10 -8 -10 -10 -11 -11 -11 -10 -10 -11 -11 -11 -11 -11 -11 -11 -11 -11 -11 -11 -11 -11 -11 -12 -12 -12 -12 -13 -13 -13 -13
-17 -16 -12 -11 -11 -10 -10 -10 -10 -10 -10 -10 -10 -9 -8 -10 -10 -10 -10 -10 -10 -11 -11 -11 -11 -11 -11 -11 -11 -11 -11 -11 -11 -11 -11 -11 -12 -12 -12 -12 -12 -12 -13 -13
-20 -16 -14 -13 -12 -11 -10 -10 -11 -12 -11 -12 -13 -9 -10 -10 -10 -10 -10 -10 -10 -11 -11 -11 -11 -11 -11 -11 -11 -11 -11 -11 -11 -11 -12 -12 -12 -12 -12 -12 -12 -12 -13 -13
-20 -17 -16 -13 -13 -13 -11 -12 -11 -11 -11 -12 -12 -11 -10 -10 -10 -10 -10 -10 -11 -11 -11 -11 -11 -11 -11 -11 -11 -11 -11 -11 -11 -12 -12 -12 -12 -12 -12 -12 -12 -12 -13 -13
-20 -17 -18 -16 -14 -11 -11 -11 -11 -11 -12 -12 -12 -10 -10 -11 -10 -10 -10 -10 -11 -11 -11 -11 -11 -11 -10 -11 -11 -11 -11 -11 -12 -12 -12 -12 -12 -12 -12 -12 -12 -12 -13 -13
-21 -18 -18 -18 -13 -13 -13 -11 -11 -10 -11 -13 -14 -10 -10 -10 -10 -10 -10 -10 -11 -11 -11 -12 -11 -10 -11 -11 -11 -11 -11 -11 -12 -12 -12 -12 -12 -12 -12 -12 -12 -12 -13 -13
-21 -19 -18 -16 -17 -15 -13 -12 -11 -12 -12 -11 -11 -11 -10 -11 -10 -11 -10 -11 -11 -11 -11 -11 -10 -10 -11 -11 -11 -11 -11 -11 -11 -12 -12 -11 -12 -12 -11 -12 -12 -12 -13 -12
-20 -20 -18 -17 -16 -14 -13 -12 -12 -12 -12 -12 -11 -11 -11 -12 -11 -11 -11 -11 -11 -11 -11 -11 -10 -10 -11 -11 -11 -11 -11 -11 -11 -11 -12 -11 -12 -11 -11 -11 -11 -12 -12 -12
-20 -20 -18 -17 -16 -14 -14 -13 -12 -12 -12 -11 -11 -11 -11 -13 -11 -11 -11 -11 -11 -11 -11 -11 -10 -10 -11 -11 -11 -11 -11 -11 -11 -11 -11 -12 -12 -11 -11 -11 -11 -12 -12 -12
-20 -19 -18 -17 -15 -14 -14 -12 -13 -12 -12 -11 -11 -11 -11 -12 -12 -12 -12 -12 -12 -12 -11 -11 -10 -11 -11 -11 -11 -11 -11 -11 -11 -11 -11 -12 -12 -12 -11 -11 -12 -11 -12 -12
-20 -19 -19 -17 -17 -15 -14 -13 -13 -12 -12 -11 -11 -12 -12 -12 -12 -12 -12 -12 -12 -12 -11 -11 -11 -11 -11 -11 -11 -11 -11 -11 -11 -11 -11 -12 -12 -12 -12 -12 -12 -12 -12 -11
-19 -19 -18 -18 -18 -16 -15 -14 -13 -13 -12 -12 -12 -12 -12 -13 -13 -12 -12 -12 -12 -12 -11 -11 -11 -11 -11 -11 -11 -11 -11 -11 -11 -11 -11 -12 -12 -12 -12 -12 -12 -12 -12 -11
-20 -19 -19 -18 -18 -17 -16 -14 -13 -13 -12 -11 -12 -11 -12 -13 -12 -12 -11 -12 -11 -12 -11 -11 -12 -11 -11 -11 -11 -11 -11 -11 -11 -11 -11 -12 -12 -12 -12 -12 -12 -12 -12 -12
-20 -20 -20 -18 -18 -18 -16 -14 -13 -13 -12 -11 -12 -12 -11 -11 -12 -12 -12 -11 -11 -11 -11 -12 -12 -11 -11 -11 -11 -11 -11 -11 -11 -12 -11 -12 -12 -12 -12 -12 -12 -12 -12 -12
-20 -19 -19 -19 -18 -18 -17 -14 -14 -13 -11 -11 -12 -13 -11 -11 -12 -10 -11 -11 -11 -11 -11 -12 -12 -11 -11 -11 -11 -11 -11 -11 -12 -12 -12 -12 -12 -12 -12 -12 -12 -12 -12 -12
-20 -19 -19 -18 -18 -17 -17 -15 -14 -12 -11 -11 -12 -13 -12 -12 -12 -11 -12 -12 -11 -11 -11 -12 -12 -12 -11 -11 -11 -11 -11 -11 -12 -12 -12 -12 -12 -12 -12 -12 -12 -12 -12 -12
-20 -20 -19 -19 -17 -17 -16 -15 -14 -13 -12 -12 -12 -12 -13 -12 -12 -12 -12 -12 -11 -12 -12 -12 -12 -12 -12 -11 -11 -11 -11 -11 -12 -12 -12 -12 -12 -12 -12 -12 -12 -12 -12 -12
-21 -20 -19 -19 -18 -17 -17 -15 -15 -13 -12 -12 -12 -12 -12 -12 -12 -12 -12 -11 -11 -12 -12 -12 -12 -12 -12 -12 -12 -12 -11 -12 -12 -12 -12 -12 -12 -12 -12 -12 -12 -12 -12 -12
-20 -20 -19 -19 -18 -17 -16 -16 -15 -14 -13 -12 -12 -12 -13 -12 -12 -12 -12 -11 -11 -11 -11 -12 -12 -13 -12 -12 -12 -12 -12 -11 -12 -12 -12 -12 -12 -12 -12 -12 -12 -12 -12 -12
-20 -19 -19 -19 -18 -17 -16 -16 -16 -14 -13 -13 -12 -12 -12 -12 -12 -12 -12 -12 -11 -11 -11 -12 -12 -12 -12 -12 -12 -11 -11 -11 -11 -11 -12 -12 -12 -12 -12 -12 -12 -12 -12 -12

GFSCGP_500_temp_033.txt.gz
Temp
-10 -11 -10 -9 -9 -9 -10 -11 -10 -10 -10 -13 -11 -11 -12 -11 -11 -10 -11 -10 -10 -10 -11 -10 -10 -10 -10 -10 -11 -11 -11 -12 -12 -12 -13 -12 -13 -13 -12 -12 -12 -12 -12 -12
-11 -10 -8 -10 -10 -10 -11 -11 -9 -10 -11 -13 -13 -12 -13 -12 -9 -10 -10 -10 -10 -10 -10 -10 -10 -10 -10 -10 -11 -11 -11 -12 -12 -12 -12 -12 -12 -12 -12 -12 -12 -12 -12 -12
-11 -8 -11 -10 -10 -11 -10 -10 -9 -10 -10 -12 -13 -13 -9 -9 -10 -10 -10 -10 -10 -10 -10 -10 -10 -10 -11 -11 -11 -11 -12 -11 -11 -11 -11 -12 -12 -12 -12 -12 -12 -12 -12 -12
-12 -9 -10 -10 -10 -10 -9 -10 -10 -10 -11 -11 -13 -11 -8 -10 -11 -10 -9 -10 -11 -10 -10 -11 -10 -10 -11 -11 -11 -11 -11 -11 -11 -11 -11 -11 -11 -11 -12 -12 -12 -12 -13 -13
-9 -10 -10 -11 -8 -11 -8 -12 -11 -11 -11 -11 -10 -12 -7 -10 -10 -9 -11 -11 -10 -9 -11 -11 -10 -10 -11 -11 -11 -11 -11 -11 -11 -11 -11 -11 -11 -11 -11 -11 -12 -12 -13 -13
-10 -12 -12 -9 -10 -11 -11 -12 -12 -13 -11 -11 -9 -12 -7 -9 -9 -10 -11 -10 -9 -11 -11 -10 -10 -11 -11 -11 -11 -11 -11 -11 -11 -11 -11 -11 -11 -11 -11 -12 -12 -12 -13 -13
-12 -13 -12 -11 -12 -11 -12 -12 -13 -13 -10 -7 -10 -13 -7 -8 -9 -10 -10 -9 -10 -11 -10 -10 -10 -10 -11 -11 -11 -11 -11 -11 -11 -11 -11 -11 -11 -11 -11 -12 -12 -12 -12 -13
-17 -17 -13 -10 -10 -9 -12 -12 -10 -8 -9 -9 -11 -11 -8 -9 -9 -9 -10 -10 -11 -10 -10 -10 -11 -11 -11 -11 -11 -11 -11 -11 -11 -11 -11 -11 -11 -11 -12 -12 -12 -12 -12 -13
-21 -20 -16 -15 -11 -12 -11 -14 -8 -12 -12 -12 -11 -11 -11 -10 -9 -10 -10 -10 -10 -10 -10 -11 -11 -11 -11 -11 -11 -11 -11 -11 -11 -11 -11 -11 -11 -11 -11 -12 -12 -12 -13 -13
-20 -20 -17 -16 -14 -13 -14 -10 -14 -12 -11 -12 -11 -11 -11 -10 -11 -10 -10 -10 -10 -10 -11 -11 -11 -11 -11 -11 -11 -11 -11 -11 -11 -11 -11 -11 -11 -11 -11 -12 -12 -12 -13 -12
-20 -19 -19 -18 -17 -14 -13 -15 -12 -11 -12 -12 -12 -11 -12 -10 -11 -10 -10 -10 -10 -10 -10 -11 -11 -11 -11 -11 -11 -11 -11 -11 -11 -11 -11 -11 -11 -11 -12 -11 -12 -12 -12 -12
-22 -20 -18 -18 -17 -16 -14 -15 -13 -10 -10 -13 -12 -11 -11 -11 -11 -10 -10 -9 -10 -10 -10 -11 -11 -11 -11 -11 -11 -11 -11 -11 -11 -11 -11 -11 -11 -11 -11 -11 -12 -12 -12 -12
-22 -20 -18 -17 -17 -18 -17 -16 -14 -12 -14 -13 -12 -11 -11 -11 -11 -10 -10 -9 -10 -11 -11 -11 -11 -11 -11 -10 -10 -11 -11 -11 -11 -11 -11 -11 -11 -11 -11 -11 -11 -12 -12 -12
-21 -20 -18 -16 -17 -17 -17 -16 -15 -14 -14 -13 -12 -12 -11 -11 -10 -10 -10 -11 -11 -11 -11 -11 -11 -11 -11 -10 -10 -11 -11 -11 -11 -11 -11 -11 -11 -11 -11 -11 -11 -12 -12 -12
-21 -20 -18 -16 -16 -16 -16 -16 -15 -15 -14 -13 -13 -13 -13 -13 -13 -11 -11 -11 -11 -11 -12 -12 -11 -11 -10 -10 -10 -11 -11 -11 -11 -11 -11 -11 -11 -11 -11 -11 -11 -11 -12 -12
-21 -19 -18 -19 -16 -16 -16 -16 -15 -15 -15 -13 -13 -13 -13 -13 -13 -12 -12 -11 -12 -12 -12 -12 -11 -11 -10 -10 -10 -11 -11 -10 -11 -11 -11 -11 -12 -12 -11 -11 -11 -12 -12 -12
-20 -19 -21 -19 -17 -16 -17 -16 -15 -15 -15 -14 -14 -13 -12 -13 -11 -12 -12 -12 -12 -12 -12 -12 -11 -11 -10 -11 -10 -11 -11 -10 -11 -11 -11 -12 -12 -12 -12 -12 -11 -11 -11 -12
-20 -19 -19 -19 -17 -17 -17 -16 -16 -16 -16 -15 -15 -14 -14 -13 -12 -13 -13 -13 -13 -12 -12 -12 -11 -11 -11 -11 -11 -11 -11 -10 -11 -11 -11 -12 -12 -12 -12 -12 -11 -11 -12 -12
-20 -19 -19 -18 -18 -16 -15 -16 -16 -16 -16 -15 -16 -14 -13 -13 -13 -13 -12 -12 -13 -13 -12 -12 -11 -11 -11 -11 -11 -11 -11 -10 -11 -11 -11 -11 -12 -12 -12 -11 -12 -12 -12 -12
-20 -19 -19 -18 -17 -16 -15 -16 -16 -16 -15 -13 -13 -12 -13 -13 -12 -12 -12 -12 -12 -13 -12 -12 -11 -11 -11 -11 -11 -11 -11 -11 -11 -11 -11 -11 -12 -12 -12 -12 -12 -12 -12 -12
-20 -19 -19 -20 -17 -16 -16 -15 -16 -15 -14 -12 -12 -12 -12 -12 -12 -12 -12 -12 -12 -11 -11 -11 -11 -11 -11 -11 -11 -11 -11 -11 -11 -11 -11 -11 -11 -12 -12 -12 -12 -12 -12 -12
-21 -20 -19 -19 -19 -16 -16 -16 -16 -14 -13 -13 -13 -13 -13 -13 -13 -12 -12 -12 -12 -12 -11 -12 -11 -11 -11 -11 -11 -11 -11 -11 -11 -11 -12 -11 -11 -12 -12 -12 -12 -12 -12 -12
-20 -20 -19 -19 -18 -17 -16 -16 -16 -15 -13 -13 -13 -14 -13 -13 -13 -13 -12 -12 -12 -12 -12 -12 -12 -12 -12 -11 -11 -12 -11 -11 -11 -12 -12 -11 -11 -12 -12 -12 -12 -12 -12 -12
-20 -20 -19 -19 -18 -18 -17 -17 -16 -15 -14 -14 -13 -14 -13 -13 -13 -13 -13 -13 -12 -12 -12 -12 -12 -12 -12 -11 -11 -12 -12 -11 -11 -12 -12 -12 -12 -12 -12 -12 -12 -12 -12 -12
-20 -20 -20 -19 -18 -18 -17 -17 -17 -15 -14 -14 -14 -13 -13 -13 -13 -13 -13 -13 -13 -12 -12 -12 -12 -12 -13 -12 -11 -11 -12 -12 -11 -12 -12 -12 -12 -12 -12 -12 -12 -12 -12 -12
-20 -20 -20 -19 -19 -18 -17 -17 -17 -15 -15 -14 -14 -13 -13 -13 -13 -13 -13 -13 -13 -12 -12 -11 -12 -12 -13 -12 -12 -12 -12 -12 -11 -11 -11 -12 -12 -12 -12 -12 -12 -12 -12 -12

GFSCGP_500_temp_036.txt.gz
Temp
-11 -11 -10 -9 -10 -10 -10 -9 -10 -10 -10 -10 -11 -10 -9 -11 -12 -11 -11 -10 -10 -10 -10 -10 -10 -11 -9 -9 -10 -10 -10 -11 -11 -12 -12 -12 -12 -13 -12 -12 -12 -12 -12 -12
-11 -10 -9 -10 -10 -10 -10 -10 -10 -10 -10 -10 -13 -12 -9 -11 -10 -11 -11 -9 -8 -10 -11 -12 -10 -10 -9 -10 -10 -10 -10 -11 -12 -12 -12 -12 -12 -11 -11 -11 -12 -12 -12 -12
-11 -9 -11 -10 -10 -10 -10 -10 -9 -10 -11 -10 -12 -10 -10 -9 -10 -12 -10 -9 -10 -10 -10 -10 -10 -9 -10 -10 -10 -10 -10 -11 -12 -12 -12 -12 -11 -11 -11 -11 -11 -12 -12 -12
-11 -10 -10 -10 -10 -10 -10 -9 -10 -10 -10 -10 -12 -12 -8 -8 -9 -10 -9 -10 -10 -10 -10 -9 -10 -8 -10 -11 -10 -10 -11 -11 -11 -12 -12 -11 -11 -11 -11 -11 -11 -12 -12 -12
-10 -10 -10 -10 -8 -10 -9 -13 -11 -11 -11 -12 -12 -12 -5 -9 -9 -9 -10 -10 -10 -10 -10 -10 -10 -9 -11 -11 -10 -11 -11 -11 -12 -12 -11 -11 -11 -11 -11 -11 -12 -12 -12 -12
-11 -12 -11 -10 -10 -11 -10 -12 -12 -12 -12 -14 -8 -11 -6 -8 -9 -9 -10 -10 -10 -10 -10 -11 -9 -11 -11 -11 -11 -11 -11 -12 -12 -11 -11 -11 -11 -11 -11 -12 -12 -12 -12 -12
-13 -13 -11 -11 -10 -10 -12 -11 -12 -13 -12 -9 -10 -10 -7 -8 -9 -10 -10 -9 -9 -10 -12 -11 -10 -11 -11 -11 -11 -11 -11 -12 -11 -11 -11 -11 -11 -11 -12 -12 -12 -12 -12 -13
-17 -14 -13 -11 -10 -10 -11 -12 -11 -10 -9 -8 -10 -8 -8 -10 -10 -9 -9 -8 -9 -10 -10 -10 -11 -11 -11 -11 -11 -11 -12 -11 -11 -11 -11 -11 -11 -11 -12 -11 -12 -12 -12 -12
-20 -17 -14 -14 -12 -12 -10 -16 -9 -13 -12 -13 -11 -11 -9 -10 -10 -9 -9 -9 -10 -9 -9 -11 -10 -11 -11 -11 -11 -12 -12 -11 -11 -11 -11 -11 -11 -12 -12 -11 -12 -12 -12 -12
-21 -19 -16 -13 -14 -13 -14 -11 -14 -13 -13 -13 -11 -11 -11 -11 -11 -10 -9 -10 -10 -9 -10 -10 -11 -11 -11 -11 -11 -12 -11 -11 -11 -11 -11 -11 -11 -11 -11 -11 -11 -12 -12 -12
-21 -21 -18 -17 -16 -14 -13 -14 -14 -13 -13 -12 -11 -11 -11 -11 -11 -9 -10 -10 -10 -10 -10 -10 -11 -11 -11 -11 -11 -11 -11 -11 -11 -11 -11 -11 -11 -11 -11 -11 -11 -12 -11 -11
-22 -21 -19 -18 -19 -18 -17 -16 -15 -13 -11 -13 -13 -11 -11 -11 -11 -10 -10 -10 -9 -10 -10 -10 -10 -11 -11 -11 -11 -10 -11 -11 -11 -11 -11 -11 -11 -11 -11 -11 -11 -12 -11 -11
-21 -20 -19 -20 -19 -18 -18 -17 -15 -14 -15 -13 -12 -11 -12 -11 -10 -11 -11 -10 -9 -10 -10 -10 -11 -11 -11 -11 -10 -10 -11 -11 -11 -11 -11 -11 -11 -11 -11 -11 -11 -12 -12 -11
-21 -20 -20 -19 -19 -18 -17 -17 -16 -15 -15 -13 -13 -12 -11 -11 -11 -11 -12 -10 -10 -10 -10 -10 -11 -11 -11 -11 -10 -11 -11 -11 -11 -11 -11 -11 -11 -11 -11 -11 -11 -12 -12 -11
-21 -20 -20 -20 -18 -17 -16 -17 -16 -15 -14 -13 -13 -12 -12 -12 -11 -11 -10 -10 -11 -10 -11 -11 -12 -11 -11 -10 -11 -10 -11 -11 -11 -11 -11 -11 -11 -11 -11 -11 -11 -11 -12 -12
-20 -20 -20 -20 -18 -17 -16 -16 -16 -15 -14 -13 -12 -12 -12 -12 -11 -10 -11 -10 -11 -11 -11 -12 -12 -11 -11 -10 -10 -10 -11 -11 -11 -11 -11 -11 -11 -11 -11 -11 -11 -11 -12 -12
-20 -21 -20 -19 -17 -17 -16 -16 -16 -15 -14 -12 -12 -12 -12 -11 -13 -11 -11 -11 -11 -12 -12 -12 -12 -11 -11 -11 -10 -10 -11 -11 -11 -11 -11 -11 -11 -12 -11 -11 -11 -11 -11 -12
-21 -21 -20 -19 -17 -16 -15 -15 -15 -15 -14 -13 -13 -12 -13 -12 -14 -11 -12 -12 -12 -12 -12 -12 -12 -11 -11 -11 -11 -11 -11 -11 -11 -11 -11 -11 -11 -12 -12 -12 -11 -11 -11 -12
-20 -20 -20 -19 -18 -15 -16 -16 -15 -15 -14 -14 -13 -13 -14 -14 -13 -13 -12 -12 -13 -12 -13 -12 -12 -11 -11 -11 -11 -11 -11 -11 -11 -11 -11 -11 -11 -11 -11 -12 -11 -11 -11 -11
-20 -21 -20 -18 -18 -15 -14 -15 -15 -15 -15 -13 -13 -14 -13 -14 -13 -13 -12 -12 -12 -12 -13 -12 -12 -11 -11 -11 -11 -11 -11 -11 -11 -11 -11 -11 -11 -11 -11 -12 -12 -12 -11 -11
-20 -20 -19 -20 -17 -15 -15 -15 -14 -15 -14 -14 -14 -14 -14 -12 -12 -13 -12 -12 -12 -12 -12 -13 -12 -11 -11 -11 -11 -11 -11 -11 -11 -11 -11 -11 -11 -11 -11 -12 -12 -12 -11 -11
-20 -20 -20 -20 -18 -18 -16 -15 -15 -15 -14 -15 -15 -14 -14 -12 -12 -11 -13 -12 -12 -12 -11 -12 -12 -11 -11 -11 -11 -11 -11 -11 -11 -11 -11 -11 -11 -12 -12 -11 -12 -12 -12 -12
-20 -19 -19 -19 -19 -18 -16 -16 -15 -14 -15 -14 -14 -13 -13 -13 -12 -12 -12 -12 -12 -13 -12 -12 -12 -12 -11 -11 -11 -11 -11 -11 -11 -11 -11 -11 -11 -12 -12 -12 -12 -12 -12 -12
-20 -20 -20 -19 -18 -17 -17 -16 -15 -16 -15 -14 -14 -14 -14 -13 -13 -13 -13 -12 -13 -13 -13 -13 -12 -12 -12 -11 -11 -11 -11 -11 -12 -11 -12 -12 -12 -12 -12 -12 -12 -12 -12 -12
-20 -20 -19 -19 -18 -18 -17 -17 -16 -16 -16 -15 -15 -14 -13 -13 -12 -13 -13 -13 -13 -13 -13 -13 -12 -12 -12 -12 -12 -11 -11 -11 -11 -12 -12 -12 -12 -12 -12 -12 -12 -12 -12 -12
-20 -20 -19 -19 -19 -18 -18 -18 -17 -17 -16 -15 -15 -14 -14 -13 -13 -14 -13 -13 -13 -13 -13 -13 -13 -13 -12 -12 -12 -12 -11 -11 -11 -11 -11 -12 -12 -12 -12 -12 -12 -12 -12 -12

GFSCGP_500_temp_042.txt.gz
Temp
-12 -12 -11 -10 -11 -11 -11 -10 -10 -11 -11 -11 -11 -10 -10 -10 -11 -10 -9 -8 -8 -8 -8 -8 -8 -9 -10 -10 -10 -10 -11 -12 -11 -11 -11 -11 -11 -11 -11 -11 -11 -12 -12 -12
-11 -11 -11 -11 -11 -11 -11 -11 -10 -11 -11 -11 -11 -11 -9 -10 -10 -9 -9 -8 -8 -8 -8 -8 -9 -10 -10 -10 -10 -11 -10 -11 -11 -12 -12 -12 -12 -11 -12 -12 -12 -12 -12 -12
-11 -11 -11 -11 -11 -11 -11 -11 -11 -11 -11 -10 -11 -11 -10 -9 -9 -9 -8 -8 -8 -8 -8 -9 -9 -10 -10 -11 -10 -10 -11 -11 -12 -12 -12 -12 -12 -12 -12 -13 -12 -12 -12 -12
-12 -11 -11 -11 -11 -11 -11 -11 -11 -11 -11 -10 -12 -10 -10 -8 -8 -8 -8 -8 -8 -8 -9 -9 -9 -9 -10 -10 -10 -11 -11 -11 -12 -12 -12 -12 -12 -12 -12 -12 -12 -12 -12 -12
-12 -12 -12 -11 -11 -11 -10 -11 -11 -12 -11 -11 -11 -12 -7 -8 -7 -8 -8 -8 -9 -9 -9 -9 -9 -9 -10 -10 -11 -12 -11 -12 -12 -12 -11 -11 -12 -12 -12 -12 -12 -12 -12 -12
-14 -14 -13 -12 -11 -11 -11 -11 -12 -12 -11 -11 -10 -11 -7 -8 -7 -8 -8 -9 -10 -9 -8 -8 -8 -9 -10 -11 -11 -11 -11 -12 -12 -12 -11 -12 -12 -11 -12 -11 -11 -11 -12 -12
-17 -16 -14 -14 -13 -12 -11 -11 -11 -11 -11 -9 -10 -10 -7 -7 -8 -9 -9 -9 -9 -9 -8 -8 -10 -10 -10 -12 -12 -11 -12 -12 -11 -11 -11 -12 -11 -11 -11 -11 -12 -12 -12 -12
-19 -16 -15 -15 -14 -14 -13 -12 -11 -11 -10 -10 -10 -8 -7 -7 -8 -9 -9 -10 -9 -8 -8 -8 -9 -9 -11 -12 -12 -12 -12 -11 -12 -12 -11 -11 -11 -11 -11 -11 -11 -11 -12 -12
-21 -18 -17 -17 -16 -14 -14 -12 -12 -11 -12 -10 -9 -8 -8 -8 -8 -9 -11 -9 -9 -8 -8 -9 -9 -10 -11 -11 -11 -11 -11 -11 -12 -11 -12 -12 -11 -11 -11 -12 -11 -11 -12 -11
-21 -20 -20 -19 -17 -16 -15 -14 -14 -13 -13 -11 -9 -8 -8 -8 -9 -10 -11 -10 -9 -8 -8 -9 -10 -10 -10 -11 -11 -11 -11 -12 -11 -11 -11 -11 -11 -11 -11 -11 -11 -11 -12 -12
-22 -21 -20 -20 -20 -17 -16 -15 -15 -15 -12 -11 -9 -8 -8 -9 -9 -10 -10 -10 -9 -8 -9 -10 -10 -10 -10 -11 -11 -11 -11 -11 -11 -11 -11 -11 -11 -11 -11 -11 -11 -11 -12 -12
-22 -22 -21 -20 -20 -18 -18 -16 -16 -15 -12 -10 -9 -8 -8 -9 -11 -10 -10 -11 -9 -9 -10 -10 -10 -10 -10 -11 -11 -11 -11 -11 -11 -11 -11 -11 -11 -11 -11 -11 -11 -11 -12 -12
-23 -22 -22 -21 -21 -20 -19 -18 -17 -14 -13 -11 -10 -8 -10 -10 -12 -10 -10 -11 -10 -10 -10 -10 -10 -10 -10 -11 -11 -11 -11 -10 -11 -10 -10 -11 -11 -11 -11 -11 -11 -11 -12 -12
-22 -22 -22 -22 -22 -21 -20 -19 -17 -15 -14 -11 -10 -8 -10 -11 -12 -11 -11 -11 -9 -10 -10 -10 -10 -10 -11 -11 -10 -11 -10 -10 -10 -10 -10 -11 -11 -11 -11 -11 -11 -11 -12 -12
-23 -22 -22 -22 -22 -22 -20 -19 -17 -16 -14 -12 -10 -9 -10 -12 -12 -12 -12 -11 -10 -10 -10 -10 -10 -10 -11 -10 -10 -10 -10 -10 -10 -10 -10 -11 -11 -11 -11 -11 -11 -11 -12 -12
-22 -22 -22 -21 -22 -22 -21 -20 -20 -17 -16 -12 -11 -9 -13 -13 -12 -12 -11 -11 -11 -10 -11 -11 -10 -11 -10 -10 -10 -10 -10 -10 -10 -10 -10 -11 -11 -11 -11 -11 -11 -11 -11 -12
-22 -22 -22 -21 -21 -21 -20 -20 -20 -18 -17 -13 -12 -11 -13 -13 -12 -12 -11 -11 -11 -11 -11 -11 -11 -11 -11 -10 -10 -10 -10 -10 -10 -10 -11 -11 -11 -11 -11 -11 -11 -11 -11 -12
-22 -22 -21 -21 -20 -20 -20 -20 -20 -19 -18 -15 -14 -13 -12 -12 -12 -11 -11 -11 -12 -12 -11 -11 -11 -11 -11 -10 -10 -10 -10 -10 -10 -11 -11 -11 -11 -11 -11 -11 -11 -11 -12 -12
-22 -21 -21 -20 -20 -20 -19 -19 -18 -18 -18 -17 -14 -13 -12 -12 -11 -11 -11 -12 -12 -12 -12 -12 -12 -11 -10 -10 -10 -10 -10 -10 -10 -11 -11 -11 -11 -12 -11 -11 -12 -11 -11 -11
-21 -21 -21 -20 -19 -18 -18 -18 -18 -18 -18 -17 -14 -13 -13 -11 -11 -11 -11 -10 -11 -12 -13 -13 -12 -11 -10 -10 -11 -10 -10 -10 -10 -11 -11 -11 -11 -12 -12 -12 -11 -11 -11 -11
-20 -20 -19 -19 -19 -18 -17 -18 -18 -18 -18 -16 -15 -13 -12 -11 -11 -12 -10 -11 -12 -13 -13 -13 -11 -11 -11 -11 -11 -10 -11 -11 -11 -11 -11 -11 -11 -11 -12 -12 -11 -11 -11 -11
-20 -20 -19 -18 -18 -17 -17 -16 -17 -17 -17 -16 -15 -13 -13 -12 -12 -12 -12 -12 -13 -12 -12 -12 -12 -11 -11 -11 -11 -10 -11 -11 -11 -11 -11 -11 -11 -11 -11 -12 -11 -12 -11 -11
-20 -19 -19 -19 -18 -18 -17 -16 -15 -16 -15 -15 -15 -14 -13 -13 -12 -12 -11 -12 -13 -13 -13 -12 -12 -11 -11 -11 -11 -11 -11 -11 -11 -11 -11 -11 -11 -11 -12 -12 -12 -12 -12 -12
-20 -20 -19 -19 -18 -17 -17 -16 -15 -15 -15 -14 -14 -14 -12 -13 -13 -12 -12 -12 -12 -13 -14 -13 -12 -11 -11 -12 -11 -11 -11 -12 -12 -12 -11 -12 -11 -12 -12 -12 -12 -12 -13 -13
-20 -20 -20 -19 -18 -18 -17 -16 -15 -15 -14 -13 -14 -12 -13 -13 -13 -13 -12 -12 -12 -11 -12 -13 -12 -11 -11 -12 -12 -11 -11 -12 -12 -12 -12 -12 -12 -12 -12 -12 -12 -12 -12 -12
-19 -19 -19 -19 -18 -18 -18 -17 -15 -14 -14 -15 -14 -14 -14 -14 -13 -13 -13 -12 -12 -12 -12 -13 -12 -12 -11 -11 -12 -12 -12 -12 -12 -12 -12 -12 -12 -12 -12 -12 -12 -12 -12 -12

GFSCGP_500_temp_045.txt.gz
Temp
-12 -12 -12 -11 -12 -12 -11 -11 -11 -10 -11 -12 -11 -10 -10 -11 -10 -9 -9 -9 -8 -8 -8 -8 -9 -9 -9 -9 -9 -9 -10 -11 -11 -11 -12 -11 -11 -12 -12 -12 -12 -12 -13 -13
-12 -11 -11 -12 -12 -12 -12 -11 -11 -11 -12 -12 -11 -10 -10 -9 -9 -9 -8 -8 -8 -8 -8 -8 -9 -9 -9 -9 -8 -9 -10 -12 -11 -11 -11 -11 -11 -12 -12 -12 -12 -13 -13 -12
-12 -12 -12 -12 -12 -12 -12 -12 -12 -12 -12 -12 -11 -10 -9 -9 -8 -9 -8 -8 -8 -8 -8 -9 -9 -9 -8 -8 -9 -9 -11 -12 -12 -11 -11 -11 -12 -12 -12 -12 -12 -12 -12 -12
-13 -12 -12 -12 -12 -12 -12 -12 -12 -12 -12 -11 -12 -9 -9 -8 -8 -8 -8 -8 -8 -8 -9 -9 -9 -9 -8 -8 -9 -9 -11 -12 -12 -11 -11 -11 -12 -11 -12 -12 -11 -11 -12 -12
-14 -13 -14 -13 -13 -12 -11 -12 -12 -12 -12 -12 -11 -11 -6 -9 -8 -8 -8 -8 -8 -9 -9 -9 -9 -8 -8 -9 -9 -10 -11 -11 -11 -11 -12 -12 -11 -12 -12 -12 -12 -12 -12 -12
-17 -17 -16 -14 -14 -13 -13 -12 -12 -12 -12 -11 -10 -11 -7 -8 -8 -8 -9 -8 -9 -9 -9 -8 -8 -8 -9 -9 -9 -11 -12 -11 -11 -12 -12 -12 -12 -12 -12 -12 -12 -12 -12 -12
-20 -19 -16 -16 -15 -14 -13 -12 -12 -13 -12 -10 -10 -11 -8 -8 -8 -8 -8 -9 -9 -9 -8 -8 -8 -8 -8 -9 -10 -11 -11 -11 -11 -12 -12 -12 -12 -12 -12 -12 -12 -12 -12 -12
-22 -20 -19 -17 -15 -15 -13 -13 -12 -12 -11 -11 -11 -9 -8 -8 -8 -8 -8 -9 -9 -9 -8 -8 -8 -8 -9 -9 -10 -11 -11 -11 -12 -12 -12 -11 -11 -11 -11 -11 -12 -12 -12 -12
-22 -21 -20 -19 -18 -16 -15 -14 -13 -13 -12 -11 -10 -9 -8 -8 -9 -9 -9 -10 -10 -9 -8 -8 -8 -8 -9 -9 -10 -10 -11 -12 -12 -11 -11 -11 -11 -11 -11 -11 -11 -11 -11 -11
-22 -22 -22 -21 -19 -17 -17 -17 -15 -14 -13 -11 -9 -9 -8 -8 -9 -10 -10 -11 -9 -9 -9 -8 -8 -8 -9 -9 -10 -10 -11 -12 -11 -11 -11 -11 -11 -11 -11 -11 -11 -11 -11 -11
-22 -22 -22 -22 -21 -20 -18 -17 -16 -15 -13 -10 -10 -9 -8 -8 -9 -10 -11 -11 -9 -9 -9 -9 -9 -9 -9 -10 -10 -10 -11 -11 -11 -11 -11 -11 -11 -11 -11 -11 -11 -11 -11 -11
-22 -22 -21 -21 -22 -21 -20 -18 -17 -15 -12 -11 -10 -8 -9 -9 -9 -11 -12 -11 -10 -10 -9 -10 -9 -10 -10 -10 -10 -11 -11 -11 -11 -11 -11 -10 -11 -11 -11 -11 -11 -11 -11 -11
-23 -22 -22 -22 -22 -21 -20 -19 -17 -14 -13 -11 -10 -8 -9 -9 -9 -11 -12 -12 -11 -10 -9 -10 -10 -10 -10 -10 -10 -11 -11 -11 -11 -10 -10 -11 -11 -11 -11 -11 -11 -11 -11 -12
-23 -23 -22 -22 -22 -22 -21 -20 -18 -16 -13 -11 -10 -9 -9 -9 -10 -11 -12 -11 -10 -10 -9 -10 -10 -10 -10 -10 -11 -11 -11 -11 -10 -10 -10 -11 -11 -11 -11 -11 -11 -11 -11 -12
-23 -23 -22 -22 -22 -22 -21 -20 -18 -16 -13 -12 -10 -9 -9 -10 -12 -11 -11 -10 -11 -10 -9 -10 -11 -10 -10 -10 -11 -11 -11 -10 -10 -10 -11 -11 -10 -11 -11 -11 -11 -11 -11 -11
-22 -22 -22 -22 -22 -22 -21 -21 -19 -17 -14 -11 -10 -10 -9 -12 -13 -12 -12 -11 -10 -9 -9 -10 -11 -10 -10 -11 -11 -11 -11 -10 -10 -11 -11 -10 -11 -11 -11 -11 -11 -11 -11 -11
-22 -22 -22 -21 -22 -22 -20 -20 -20 -17 -15 -12 -10 -10 -10 -12 -13 -13 -13 -12 -11 -10 -9 -10 -11 -11 -11 -11 -11 -11 -10 -10 -10 -11 -10 -11 -11 -11 -11 -11 -11 -11 -11 -11
-22 -22 -22 -22 -21 -21 -21 -21 -20 -18 -16 -14 -12 -11 -12 -12 -13 -13 -13 -12 -11 -10 -11 -11 -11 -11 -11 -11 -11 -11 -10 -10 -11 -10 -10 -11 -11 -11 -11 -11 -11 -11 -11 -11
-22 -22 -21 -21 -21 -20 -20 -20 -20 -19 -17 -15 -12 -11 -13 -12 -13 -13 -13 -12 -11 -10 -12 -12 -12 -12 -11 -11 -11 -11 -10 -10 -10 -11 -10 -11 -11 -11 -11 -11 -11 -11 -11 -11
-21 -21 -20 -20 -20 -20 -19 -20 -20 -19 -19 -17 -14 -12 -12 -13 -13 -13 -13 -12 -12 -11 -13 -13 -12 -12 -11 -11 -11 -11 -10 -11 -10 -10 -10 -11 -11 -11 -12 -11 -11 -11 -11 -11
-20 -20 -20 -20 -20 -19 -19 -19 -19 -19 -18 -17 -16 -13 -12 -12 -12 -13 -13 -12 -12 -12 -12 -13 -13 -12 -11 -11 -11 -11 -11 -11 -11 -11 -11 -11 -11 -11 -11 -11 -11 -11 -11 -11
-20 -20 -20 -20 -19 -19 -19 -19 -19 -19 -18 -17 -15 -13 -12 -12 -13 -13 -12 -12 -12 -11 -11 -13 -13 -12 -12 -11 -11 -11 -11 -11 -11 -11 -11 -11 -11 -11 -11 -11 -12 -12 -11 -12
-20 -20 -20 -20 -19 -19 -18 -18 -17 -18 -17 -14 -15 -14 -13 -12 -13 -12 -12 -12 -12 -12 -12 -13 -13 -12 -12 -11 -11 -11 -11 -11 -11 -11 -11 -11 -12 -12 -11 -12 -12 -12 -12 -12
-20 -20 -19 -19 -18 -18 -18 -18 -18 -18 -17 -16 -15 -14 -13 -13 -13 -12 -12 -11 -11 -12 -12 -13 -13 -12 -12 -12 -11 -11 -11 -11 -11 -11 -12 -12 -12 -12 -12 -11 -12 -13 -12 -12
-20 -20 -20 -19 -19 -18 -17 -17 -17 -17 -15 -15 -15 -15 -13 -13 -12 -12 -12 -12 -11 -12 -13 -12 -13 -12 -12 -12 -11 -11 -11 -11 -11 -12 -12 -12 -12 -12 -12 -12 -12 -13 -13 -12
-19 -19 -20 -20 -20 -19 -17 -16 -16 -16 -15 -13 -14 -14 -13 -13 -12 -12 -12 -12 -12 -13 -13 -13 -12 -12 -12 -12 -12 -12 -11 -11 -12 -12 -12 -12 -12 -12 -12 -12 -12 -12 -12 -12

GFSCGP_500_temp_048.txt.gz
Temp
-13 -13 -12 -11 -11 -12 -12 -12 -11 -11 -12 -12 -11 -10 -10 -10 -10 -10 -9 -9 -9 -9 -9 -9 -9 -9 -9 -9 -8 -9 -9 -9 -9 -10 -9 -11 -12 -12 -12 -12 -12 -13 -13 -13
-14 -12 -12 -12 -13 -12 -12 -12 -12 -12 -12 -12 -11 -10 -10 -10 -9 -9 -8 -9 -8 -8 -8 -8 -8 -9 -9 -9 -9 -9 -9 -9 -9 -9 -10 -11 -11 -11 -12 -12 -13 -13 -13 -13
-15 -13 -13 -13 -13 -13 -12 -12 -12 -12 -13 -12 -11 -10 -10 -9 -9 -9 -8 -8 -7 -8 -8 -8 -9 -9 -9 -9 -9 -9 -9 -9 -9 -9 -10 -11 -11 -12 -12 -12 -12 -13 -12 -12
-19 -16 -14 -14 -13 -13 -13 -12 -12 -12 -12 -12 -12 -9 -9 -9 -8 -8 -8 -8 -8 -8 -8 -9 -9 -9 -9 -9 -9 -8 -9 -9 -10 -10 -10 -11 -11 -12 -12 -12 -12 -12 -12 -12
-21 -19 -17 -15 -14 -14 -13 -13 -13 -13 -13 -12 -12 -11 -7 -9 -8 -8 -9 -9 -8 -8 -9 -9 -9 -9 -9 -8 -8 -9 -9 -10 -10 -10 -10 -11 -12 -12 -12 -12 -12 -12 -11 -12
-22 -22 -20 -18 -16 -15 -14 -14 -13 -13 -13 -12 -11 -12 -7 -8 -8 -9 -9 -9 -9 -9 -9 -9 -9 -9 -8 -8 -9 -9 -9 -10 -10 -10 -11 -11 -12 -12 -12 -12 -11 -11 -12 -12
-23 -23 -22 -20 -18 -16 -15 -14 -14 -14 -13 -11 -11 -12 -8 -9 -9 -9 -9 -9 -9 -9 -10 -9 -9 -8 -9 -8 -8 -8 -9 -9 -10 -11 -11 -11 -12 -12 -12 -11 -11 -11 -11 -11
-23 -23 -22 -21 -19 -18 -16 -15 -14 -14 -12 -12 -12 -11 -8 -9 -9 -9 -9 -9 -9 -10 -10 -9 -8 -8 -8 -8 -8 -9 -9 -9 -10 -11 -11 -12 -12 -12 -11 -11 -11 -11 -11 -11
-22 -22 -22 -21 -20 -20 -18 -16 -15 -15 -14 -12 -11 -10 -10 -9 -9 -10 -11 -10 -9 -9 -9 -8 -8 -8 -8 -8 -8 -9 -9 -10 -10 -11 -11 -12 -12 -11 -11 -11 -11 -11 -11 -11
-23 -22 -22 -22 -21 -20 -19 -18 -17 -16 -14 -12 -11 -10 -10 -9 -9 -11 -11 -10 -10 -9 -9 -9 -9 -8 -8 -8 -9 -9 -10 -10 -10 -11 -12 -11 -11 -11 -11 -11 -11 -11 -11 -11
-23 -23 -23 -22 -22 -22 -20 -19 -18 -16 -14 -12 -11 -10 -10 -10 -10 -10 -10 -10 -10 -10 -10 -9 -8 -8 -8 -9 -9 -9 -10 -10 -11 -11 -11 -11 -11 -11 -11 -11 -11 -11 -11 -11
-23 -23 -22 -22 -23 -22 -21 -19 -18 -17 -14 -12 -11 -11 -10 -10 -10 -10 -10 -11 -11 -10 -10 -9 -9 -9 -9 -9 -9 -10 -10 -11 -11 -11 -11 -11 -11 -11 -11 -11 -11 -11 -11 -11
-23 -23 -22 -22 -22 -22 -22 -21 -20 -17 -15 -12 -12 -10 -10 -10 -9 -10 -10 -11 -10 -10 -10 -9 -9 -9 -9 -9 -10 -10 -10 -11 -11 -11 -10 -11 -10 -11 -11 -11 -11 -11 -11 -12
-23 -23 -23 -22 -23 -22 -22 -21 -20 -18 -15 -12 -11 -10 -11 -10 -11 -10 -11 -11 -10 -10 -10 -9 -9 -9 -10 -10 -10 -10 -10 -11 -11 -10 -10 -10 -10 -11 -11 -11 -11 -11 -11 -12
-23 -23 -23 -22 -22 -22 -22 -21 -20 -18 -15 -13 -11 -11 -10 -11 -12 -10 -12 -12 -10 -11 -10 -10 -10 -9 -10 -10 -10 -10 -11 -11 -10 -10 -10 -11 -11 -11 -11 -11 -11 -11 -11 -12
-23 -23 -22 -22 -22 -22 -21 -21 -20 -18 -16 -12 -11 -11 -10 -11 -12 -13 -13 -12 -11 -11 -11 -10 -10 -10 -10 -10 -10 -10 -11 -11 -11 -10 -10 -11 -11 -11 -11 -11 -11 -11 -11 -12
-22 -22 -22 -22 -22 -22 -21 -21 -21 -19 -16 -13 -12 -11 -12 -11 -12 -13 -13 -12 -12 -12 -11 -10 -10 -10 -10 -10 -11 -10 -11 -11 -11 -10 -11 -11 -11 -11 -11 -12 -12 -11 -11 -12
-22 -22 -22 -22 -22 -21 -21 -21 -20 -19 -17 -15 -13 -12 -12 -12 -11 -13 -13 -12 -12 -12 -11 -10 -10 -10 -10 -11 -11 -11 -11 -11 -11 -11 -11 -11 -11 -11 -11 -12 -11 -11 -11 -11
-22 -22 -22 -21 -21 -21 -21 -20 -20 -20 -17 -15 -13 -12 -11 -11 -11 -13 -13 -12 -12 -12 -11 -10 -10 -10 -11 -11 -11 -11 -11 -11 -11 -11 -11 -11 -11 -11 -12 -12 -11 -11 -11 -11
-21 -21 -21 -22 -21 -20 -20 -20 -20 -20 -19 -16 -14 -12 -12 -12 -11 -14 -14 -13 -12 -12 -11 -10 -10 -10 -11 -11 -11 -11 -11 -11 -11 -11 -11 -11 -11 -12 -11 -11 -11 -11 -11 -11
-21 -21 -20 -20 -20 -20 -20 -19 -20 -20 -19 -19 -15 -13 -12 -12 -11 -14 -13 -12 -13 -12 -12 -10 -10 -11 -11 -11 -11 -11 -11 -11 -11 -11 -11 -11 -11 -11 -11 -11 -11 -11 -11 -11
-20 -20 -20 -20 -20 -20 -20 -20 -20 -19 -19 -19 -16 -14 -13 -11 -12 -14 -13 -12 -13 -12 -11 -11 -10 -11 -12 -12 -11 -11 -11 -11 -11 -11 -11 -11 -11 -11 -11 -12 -12 -12 -12 -11
-21 -20 -20 -20 -20 -19 -19 -20 -20 -19 -19 -19 -17 -15 -12 -12 -13 -13 -13 -13 -13 -12 -11 -11 -11 -11 -12 -12 -12 -11 -11 -11 -11 -11 -11 -11 -11 -11 -11 -11 -12 -12 -12 -11
-21 -20 -20 -19 -19 -19 -18 -18 -19 -18 -18 -18 -17 -14 -13 -12 -13 -13 -13 -13 -13 -12 -12 -12 -12 -11 -12 -12 -12 -11 -11 -11 -11 -11 -11 -12 -12 -12 -12 -12 -13 -12 -12 -11
-20 -20 -20 -20 -19 -18 -18 -18 -18 -18 -18 -17 -16 -15 -14 -13 -12 -13 -14 -13 -13 -12 -12 -12 -13 -12 -12 -12 -12 -11 -12 -12 -11 -11 -11 -12 -12 -12 -12 -13 -13 -12 -12 -11
-20 -19 -19 -20 -19 -18 -18 -17 -17 -17 -16 -16 -15 -15 -14 -13 -13 -14 -14 -13 -13 -13 -12 -12 -12 -12 -12 -12 -12 -12 -12 -12 -11 -12 -12 -12 -12 -12 -12 -12 -12 -12 -12 -11